<?xml version="1.0" encoding="UTF-8" standalone="no" ?>
<gpx xmlns="http://www.topografix.com/GPX/1/1" xmlns:xsi="http://www.w3.org/2001/XMLSchema-instance" xsi:schemaLocation="http://www.topografix.com/GPX/1/1 http://www.topografix.com/GPX/1/1/gpx.xsd" version="1.1" creator="VisuGPX - https://www.visugpx.com">
  <metadata>
    <name>Pic Nord du Merlet</name>
    <desc><![CDATA[Grand tour par la combe du Merlet
Monter au col de la lavoire (2382) par la combe du Merlet. Enlever les peaux et descendre dans la combe des Reisses. Repeauter vers 2250 et monter au Pas de la Fenêtre (2517). Enlever les peaux, basculer, et descendre jusqu'à 2200. Repeauter et monter au col coté 2368 sur IGN. Enlever les peaux et passer en traversée sous le pic nord du Merlet, le col du Merlet, le pic sud du Merlet. Repeauter vers 2100 et monter dans la combe nord-ouest du pic sud du merlet (la deuxième) jusqu'à un petit collet (2320). Basculer dans la combe de la Colombière sans enlever les peaux et monter au col du même nom (2397).
Descente par la combe du Merlet.]]></desc>
  </metadata>
  <trk>
    <name><![CDATA[TRACE01]]></name>
    <trkseg>
      <trkpt lat="45.31601" lon="6.25044">
        <ele>1064</ele>
        <time>2012-03-23T15:54:52Z</time>
      </trkpt>
      <trkpt lat="45.31618" lon="6.25061">
        <ele>1063</ele>
        <time>2012-03-23T15:54:52Z</time>
      </trkpt>
      <trkpt lat="45.31625" lon="6.25099">
        <ele>1062</ele>
        <time>2012-03-23T15:54:52Z</time>
      </trkpt>
      <trkpt lat="45.31636" lon="6.2507">
        <ele>1066</ele>
        <time>2012-03-23T15:54:52Z</time>
      </trkpt>
      <trkpt lat="45.31644" lon="6.25031">
        <ele>1072</ele>
        <time>2012-03-23T15:54:52Z</time>
      </trkpt>
      <trkpt lat="45.31651" lon="6.24995">
        <ele>1077</ele>
        <time>2012-03-23T15:54:52Z</time>
      </trkpt>
      <trkpt lat="45.31661" lon="6.24967">
        <ele>1083</ele>
        <time>2012-03-23T15:54:52Z</time>
      </trkpt>
      <trkpt lat="45.31668" lon="6.24941">
        <ele>1084</ele>
        <time>2012-03-23T15:54:52Z</time>
      </trkpt>
      <trkpt lat="45.31675" lon="6.24901">
        <ele>1090</ele>
        <time>2012-03-23T15:54:52Z</time>
      </trkpt>
      <trkpt lat="45.31691" lon="6.24875">
        <ele>1094</ele>
        <time>2012-03-23T15:54:52Z</time>
      </trkpt>
      <trkpt lat="45.31696" lon="6.24836">
        <ele>1101</ele>
        <time>2012-03-23T15:54:52Z</time>
      </trkpt>
      <trkpt lat="45.31703" lon="6.24805">
        <ele>1107</ele>
        <time>2012-03-23T15:54:52Z</time>
      </trkpt>
      <trkpt lat="45.31713" lon="6.24769">
        <ele>1115</ele>
        <time>2012-03-23T15:54:52Z</time>
      </trkpt>
      <trkpt lat="45.31722" lon="6.24742">
        <ele>1121</ele>
        <time>2012-03-23T15:54:52Z</time>
      </trkpt>
      <trkpt lat="45.3173" lon="6.24709">
        <ele>1126</ele>
        <time>2012-03-23T15:54:52Z</time>
      </trkpt>
      <trkpt lat="45.31741" lon="6.24676">
        <ele>1131</ele>
        <time>2012-03-23T15:54:52Z</time>
      </trkpt>
      <trkpt lat="45.31758" lon="6.24653">
        <ele>1136</ele>
        <time>2012-03-23T15:54:52Z</time>
      </trkpt>
      <trkpt lat="45.31773" lon="6.24636">
        <ele>1140</ele>
        <time>2012-03-23T15:54:52Z</time>
      </trkpt>
      <trkpt lat="45.31788" lon="6.24611">
        <ele>1145</ele>
        <time>2012-03-23T15:54:52Z</time>
      </trkpt>
      <trkpt lat="45.31793" lon="6.24583">
        <ele>1151</ele>
        <time>2012-03-23T15:54:52Z</time>
      </trkpt>
      <trkpt lat="45.31803" lon="6.24555">
        <ele>1155</ele>
        <time>2012-03-23T15:54:52Z</time>
      </trkpt>
      <trkpt lat="45.31817" lon="6.24518">
        <ele>1161</ele>
        <time>2012-03-23T15:54:52Z</time>
      </trkpt>
      <trkpt lat="45.31828" lon="6.24489">
        <ele>1168</ele>
        <time>2012-03-23T15:54:52Z</time>
      </trkpt>
      <trkpt lat="45.31844" lon="6.24468">
        <ele>1174</ele>
        <time>2012-03-23T15:54:52Z</time>
      </trkpt>
      <trkpt lat="45.31865" lon="6.24434">
        <ele>1182</ele>
        <time>2012-03-23T15:54:52Z</time>
      </trkpt>
      <trkpt lat="45.31879" lon="6.24413">
        <ele>1186</ele>
        <time>2012-03-23T15:54:52Z</time>
      </trkpt>
      <trkpt lat="45.319" lon="6.24388">
        <ele>1196</ele>
        <time>2012-03-23T15:54:52Z</time>
      </trkpt>
      <trkpt lat="45.3191" lon="6.24363">
        <ele>1201</ele>
        <time>2012-03-23T15:54:52Z</time>
      </trkpt>
      <trkpt lat="45.31921" lon="6.24337">
        <ele>1206</ele>
        <time>2012-03-23T15:54:52Z</time>
      </trkpt>
      <trkpt lat="45.31933" lon="6.24307">
        <ele>1211</ele>
        <time>2012-03-23T15:54:52Z</time>
      </trkpt>
      <trkpt lat="45.31948" lon="6.24277">
        <ele>1216</ele>
        <time>2012-03-23T15:54:52Z</time>
      </trkpt>
      <trkpt lat="45.31965" lon="6.24264">
        <ele>1221</ele>
        <time>2012-03-23T15:54:52Z</time>
      </trkpt>
      <trkpt lat="45.31982" lon="6.24246">
        <ele>1223</ele>
        <time>2012-03-23T15:54:52Z</time>
      </trkpt>
      <trkpt lat="45.31997" lon="6.24227">
        <ele>1225</ele>
        <time>2012-03-23T15:54:52Z</time>
      </trkpt>
      <trkpt lat="45.32013" lon="6.242">
        <ele>1231</ele>
        <time>2012-03-23T15:54:52Z</time>
      </trkpt>
      <trkpt lat="45.32024" lon="6.24171">
        <ele>1236</ele>
        <time>2012-03-23T15:54:52Z</time>
      </trkpt>
      <trkpt lat="45.32039" lon="6.24143">
        <ele>1245</ele>
        <time>2012-03-23T15:54:52Z</time>
      </trkpt>
      <trkpt lat="45.32053" lon="6.2412">
        <ele>1251</ele>
        <time>2012-03-23T15:54:52Z</time>
      </trkpt>
      <trkpt lat="45.32069" lon="6.24098">
        <ele>1258</ele>
        <time>2012-03-23T15:54:52Z</time>
      </trkpt>
      <trkpt lat="45.32093" lon="6.24067">
        <ele>1262</ele>
        <time>2012-03-23T15:54:52Z</time>
      </trkpt>
      <trkpt lat="45.32105" lon="6.24042">
        <ele>1269</ele>
        <time>2012-03-23T15:54:52Z</time>
      </trkpt>
      <trkpt lat="45.32118" lon="6.2402">
        <ele>1276</ele>
        <time>2012-03-23T15:54:52Z</time>
      </trkpt>
      <trkpt lat="45.32132" lon="6.23992">
        <ele>1282</ele>
        <time>2012-03-23T15:54:52Z</time>
      </trkpt>
      <trkpt lat="45.3215" lon="6.23975">
        <ele>1288</ele>
        <time>2012-03-23T15:54:52Z</time>
      </trkpt>
      <trkpt lat="45.32167" lon="6.23963">
        <ele>1293</ele>
        <time>2012-03-23T15:54:52Z</time>
      </trkpt>
      <trkpt lat="45.32184" lon="6.23942">
        <ele>1302</ele>
        <time>2012-03-23T15:54:52Z</time>
      </trkpt>
      <trkpt lat="45.32203" lon="6.23919">
        <ele>1311</ele>
        <time>2012-03-23T15:54:52Z</time>
      </trkpt>
      <trkpt lat="45.32223" lon="6.23894">
        <ele>1321</ele>
        <time>2012-03-23T15:54:52Z</time>
      </trkpt>
      <trkpt lat="45.32239" lon="6.2388">
        <ele>1325</ele>
        <time>2012-03-23T15:54:52Z</time>
      </trkpt>
      <trkpt lat="45.32256" lon="6.23869">
        <ele>1331</ele>
        <time>2012-03-23T15:54:52Z</time>
      </trkpt>
      <trkpt lat="45.32279" lon="6.23856">
        <ele>1335</ele>
        <time>2012-03-23T15:54:52Z</time>
      </trkpt>
      <trkpt lat="45.32301" lon="6.23838">
        <ele>1341</ele>
        <time>2012-03-23T15:54:52Z</time>
      </trkpt>
      <trkpt lat="45.3232" lon="6.2381">
        <ele>1346</ele>
        <time>2012-03-23T15:54:52Z</time>
      </trkpt>
      <trkpt lat="45.32335" lon="6.23787">
        <ele>1351</ele>
        <time>2012-03-23T15:54:52Z</time>
      </trkpt>
      <trkpt lat="45.32353" lon="6.23756">
        <ele>1360</ele>
        <time>2012-03-23T15:54:52Z</time>
      </trkpt>
      <trkpt lat="45.32374" lon="6.23747">
        <ele>1365</ele>
        <time>2012-03-23T15:54:52Z</time>
      </trkpt>
      <trkpt lat="45.32386" lon="6.23722">
        <ele>1371</ele>
        <time>2012-03-23T15:54:52Z</time>
      </trkpt>
      <trkpt lat="45.32406" lon="6.23696">
        <ele>1380</ele>
        <time>2012-03-23T15:54:52Z</time>
      </trkpt>
      <trkpt lat="45.32418" lon="6.23672">
        <ele>1386</ele>
        <time>2012-03-23T15:54:52Z</time>
      </trkpt>
      <trkpt lat="45.32431" lon="6.23651">
        <ele>1392</ele>
        <time>2012-03-23T15:54:52Z</time>
      </trkpt>
      <trkpt lat="45.32447" lon="6.23648">
        <ele>1398</ele>
        <time>2012-03-23T15:54:52Z</time>
      </trkpt>
      <trkpt lat="45.32462" lon="6.23681">
        <ele>1404</ele>
        <time>2012-03-23T15:54:52Z</time>
      </trkpt>
      <trkpt lat="45.32477" lon="6.23661">
        <ele>1412</ele>
        <time>2012-03-23T15:54:52Z</time>
      </trkpt>
      <trkpt lat="45.32486" lon="6.23634">
        <ele>1418</ele>
        <time>2012-03-23T15:54:52Z</time>
      </trkpt>
      <trkpt lat="45.32492" lon="6.23601">
        <ele>1420</ele>
        <time>2012-03-23T15:54:52Z</time>
      </trkpt>
      <trkpt lat="45.32504" lon="6.23568">
        <ele>1429</ele>
        <time>2012-03-23T15:54:52Z</time>
      </trkpt>
      <trkpt lat="45.32514" lon="6.23545">
        <ele>1437</ele>
        <time>2012-03-23T15:54:52Z</time>
      </trkpt>
      <trkpt lat="45.32522" lon="6.23508">
        <ele>1445</ele>
        <time>2012-03-23T15:54:52Z</time>
      </trkpt>
      <trkpt lat="45.32522" lon="6.23479">
        <ele>1451</ele>
        <time>2012-03-23T15:54:52Z</time>
      </trkpt>
      <trkpt lat="45.32539" lon="6.23473">
        <ele>1459</ele>
        <time>2012-03-23T15:54:52Z</time>
      </trkpt>
      <trkpt lat="45.3255" lon="6.23447">
        <ele>1465</ele>
        <time>2012-03-23T15:54:52Z</time>
      </trkpt>
      <trkpt lat="45.32545" lon="6.2342">
        <ele>1470</ele>
        <time>2012-03-23T15:54:52Z</time>
      </trkpt>
      <trkpt lat="45.32547" lon="6.23392">
        <ele>1475</ele>
        <time>2012-03-23T15:54:52Z</time>
      </trkpt>
      <trkpt lat="45.32544" lon="6.23361">
        <ele>1482</ele>
        <time>2012-03-23T15:54:52Z</time>
      </trkpt>
      <trkpt lat="45.32552" lon="6.23326">
        <ele>1493</ele>
        <time>2012-03-23T15:54:52Z</time>
      </trkpt>
      <trkpt lat="45.32561" lon="6.23297">
        <ele>1501</ele>
        <time>2012-03-23T15:54:52Z</time>
      </trkpt>
      <trkpt lat="45.32567" lon="6.23271">
        <ele>1506</ele>
        <time>2012-03-23T15:54:52Z</time>
      </trkpt>
      <trkpt lat="45.32564" lon="6.23244">
        <ele>1509</ele>
        <time>2012-03-23T15:54:52Z</time>
      </trkpt>
      <trkpt lat="45.32546" lon="6.23216">
        <ele>1513</ele>
        <time>2012-03-23T15:54:52Z</time>
      </trkpt>
      <trkpt lat="45.32534" lon="6.23195">
        <ele>1514</ele>
        <time>2012-03-23T15:54:52Z</time>
      </trkpt>
      <trkpt lat="45.32473" lon="6.2316">
        <ele>1534</ele>
        <time>2012-03-23T15:54:52Z</time>
      </trkpt>
      <trkpt lat="45.3246" lon="6.23136">
        <ele>1542</ele>
        <time>2012-03-23T15:54:52Z</time>
      </trkpt>
      <trkpt lat="45.32454" lon="6.23103">
        <ele>1553</ele>
        <time>2012-03-23T15:54:52Z</time>
      </trkpt>
      <trkpt lat="45.32448" lon="6.23072">
        <ele>1560</ele>
        <time>2012-03-23T15:54:52Z</time>
      </trkpt>
      <trkpt lat="45.32436" lon="6.23047">
        <ele>1566</ele>
        <time>2012-03-23T15:54:52Z</time>
      </trkpt>
      <trkpt lat="45.32421" lon="6.23013">
        <ele>1572</ele>
        <time>2012-03-23T15:54:52Z</time>
      </trkpt>
      <trkpt lat="45.32415" lon="6.23002">
        <ele>1576</ele>
        <time>2012-03-23T15:54:52Z</time>
      </trkpt>
      <trkpt lat="45.32404" lon="6.22976">
        <ele>1584</ele>
        <time>2012-03-23T15:54:52Z</time>
      </trkpt>
      <trkpt lat="45.32392" lon="6.22937">
        <ele>1592</ele>
        <time>2012-03-23T15:54:52Z</time>
      </trkpt>
      <trkpt lat="45.32387" lon="6.22912">
        <ele>1597</ele>
        <time>2012-03-23T15:54:52Z</time>
      </trkpt>
      <trkpt lat="45.32377" lon="6.22885">
        <ele>1606</ele>
        <time>2012-03-23T15:54:52Z</time>
      </trkpt>
      <trkpt lat="45.32367" lon="6.22856">
        <ele>1610</ele>
        <time>2012-03-23T15:54:52Z</time>
      </trkpt>
      <trkpt lat="45.32359" lon="6.22823">
        <ele>1618</ele>
        <time>2012-03-23T15:54:52Z</time>
      </trkpt>
      <trkpt lat="45.32354" lon="6.22793">
        <ele>1622</ele>
        <time>2012-03-23T15:54:52Z</time>
      </trkpt>
      <trkpt lat="45.32348" lon="6.22767">
        <ele>1630</ele>
        <time>2012-03-23T15:54:52Z</time>
      </trkpt>
      <trkpt lat="45.32341" lon="6.22736">
        <ele>1633</ele>
        <time>2012-03-23T15:54:52Z</time>
      </trkpt>
      <trkpt lat="45.32336" lon="6.22707">
        <ele>1639</ele>
        <time>2012-03-23T15:54:52Z</time>
      </trkpt>
      <trkpt lat="45.32333" lon="6.22679">
        <ele>1643</ele>
        <time>2012-03-23T15:54:52Z</time>
      </trkpt>
      <trkpt lat="45.3234" lon="6.22645">
        <ele>1650</ele>
        <time>2012-03-23T15:54:52Z</time>
      </trkpt>
      <trkpt lat="45.3235" lon="6.22613">
        <ele>1654</ele>
        <time>2012-03-23T15:54:52Z</time>
      </trkpt>
      <trkpt lat="45.32359" lon="6.22583">
        <ele>1658</ele>
        <time>2012-03-23T15:54:52Z</time>
      </trkpt>
      <trkpt lat="45.32371" lon="6.22557">
        <ele>1664</ele>
        <time>2012-03-23T15:54:52Z</time>
      </trkpt>
      <trkpt lat="45.32381" lon="6.22534">
        <ele>1669</ele>
        <time>2012-03-23T15:54:52Z</time>
      </trkpt>
      <trkpt lat="45.3239" lon="6.22509">
        <ele>1676</ele>
        <time>2012-03-23T15:54:52Z</time>
      </trkpt>
      <trkpt lat="45.32396" lon="6.22475">
        <ele>1682</ele>
        <time>2012-03-23T15:54:52Z</time>
      </trkpt>
      <trkpt lat="45.32405" lon="6.22438">
        <ele>1688</ele>
        <time>2012-03-23T15:54:52Z</time>
      </trkpt>
      <trkpt lat="45.32411" lon="6.22412">
        <ele>1696</ele>
        <time>2012-03-23T15:54:52Z</time>
      </trkpt>
      <trkpt lat="45.32421" lon="6.22387">
        <ele>1702</ele>
        <time>2012-03-23T15:54:52Z</time>
      </trkpt>
      <trkpt lat="45.32436" lon="6.22366">
        <ele>1707</ele>
        <time>2012-03-23T15:54:52Z</time>
      </trkpt>
      <trkpt lat="45.32452" lon="6.22328">
        <ele>1714</ele>
        <time>2012-03-23T15:54:52Z</time>
      </trkpt>
      <trkpt lat="45.32469" lon="6.22303">
        <ele>1716</ele>
        <time>2012-03-23T15:54:52Z</time>
      </trkpt>
      <trkpt lat="45.32472" lon="6.22277">
        <ele>1720</ele>
        <time>2012-03-23T15:54:52Z</time>
      </trkpt>
      <trkpt lat="45.32485" lon="6.22251">
        <ele>1726</ele>
        <time>2012-03-23T15:54:52Z</time>
      </trkpt>
      <trkpt lat="45.32484" lon="6.22213">
        <ele>1729</ele>
        <time>2012-03-23T15:54:52Z</time>
      </trkpt>
      <trkpt lat="45.32486" lon="6.22182">
        <ele>1734</ele>
        <time>2012-03-23T15:54:52Z</time>
      </trkpt>
      <trkpt lat="45.32492" lon="6.22147">
        <ele>1739</ele>
        <time>2012-03-23T15:54:52Z</time>
      </trkpt>
      <trkpt lat="45.32496" lon="6.22112">
        <ele>1747</ele>
        <time>2012-03-23T15:54:52Z</time>
      </trkpt>
      <trkpt lat="45.32497" lon="6.22074">
        <ele>1751</ele>
        <time>2012-03-23T15:54:52Z</time>
      </trkpt>
      <trkpt lat="45.325" lon="6.22043">
        <ele>1749</ele>
        <time>2012-03-23T15:54:52Z</time>
      </trkpt>
      <trkpt lat="45.32509" lon="6.22005">
        <ele>1750</ele>
        <time>2012-03-23T15:54:52Z</time>
      </trkpt>
      <trkpt lat="45.3252" lon="6.21965">
        <ele>1753</ele>
        <time>2012-03-23T15:54:52Z</time>
      </trkpt>
      <trkpt lat="45.32527" lon="6.21934">
        <ele>1752</ele>
        <time>2012-03-23T15:54:52Z</time>
      </trkpt>
      <trkpt lat="45.32533" lon="6.21899">
        <ele>1754</ele>
        <time>2012-03-23T15:54:52Z</time>
      </trkpt>
      <trkpt lat="45.32538" lon="6.21874">
        <ele>1758</ele>
        <time>2012-03-23T15:54:52Z</time>
      </trkpt>
      <trkpt lat="45.32541" lon="6.21842">
        <ele>1759</ele>
        <time>2012-03-23T15:54:52Z</time>
      </trkpt>
      <trkpt lat="45.32544" lon="6.21808">
        <ele>1764</ele>
        <time>2012-03-23T15:54:52Z</time>
      </trkpt>
      <trkpt lat="45.32551" lon="6.2177">
        <ele>1767</ele>
        <time>2012-03-23T15:54:52Z</time>
      </trkpt>
      <trkpt lat="45.32558" lon="6.21734">
        <ele>1772</ele>
        <time>2012-03-23T15:54:52Z</time>
      </trkpt>
      <trkpt lat="45.32568" lon="6.21691">
        <ele>1780</ele>
        <time>2012-03-23T15:54:52Z</time>
      </trkpt>
      <trkpt lat="45.3257" lon="6.2165">
        <ele>1782</ele>
        <time>2012-03-23T15:54:52Z</time>
      </trkpt>
      <trkpt lat="45.3257" lon="6.21621">
        <ele>1782</ele>
        <time>2012-03-23T15:54:52Z</time>
      </trkpt>
      <trkpt lat="45.32568" lon="6.21595">
        <ele>1782</ele>
        <time>2012-03-23T15:54:52Z</time>
      </trkpt>
      <trkpt lat="45.32569" lon="6.21547">
        <ele>1786</ele>
        <time>2012-03-23T15:54:52Z</time>
      </trkpt>
      <trkpt lat="45.32577" lon="6.21501">
        <ele>1788</ele>
        <time>2012-03-23T15:54:52Z</time>
      </trkpt>
      <trkpt lat="45.32585" lon="6.21466">
        <ele>1794</ele>
        <time>2012-03-23T15:54:52Z</time>
      </trkpt>
      <trkpt lat="45.32596" lon="6.21427">
        <ele>1797</ele>
        <time>2012-03-23T15:54:52Z</time>
      </trkpt>
      <trkpt lat="45.32603" lon="6.21403">
        <ele>1798</ele>
        <time>2012-03-23T15:54:52Z</time>
      </trkpt>
      <trkpt lat="45.32613" lon="6.21368">
        <ele>1805</ele>
        <time>2012-03-23T15:54:52Z</time>
      </trkpt>
      <trkpt lat="45.32609" lon="6.21341">
        <ele>1810</ele>
        <time>2012-03-23T15:54:52Z</time>
      </trkpt>
      <trkpt lat="45.32615" lon="6.21312">
        <ele>1816</ele>
        <time>2012-03-23T15:54:52Z</time>
      </trkpt>
      <trkpt lat="45.32632" lon="6.2129">
        <ele>1823</ele>
        <time>2012-03-23T15:54:52Z</time>
      </trkpt>
      <trkpt lat="45.32634" lon="6.21262">
        <ele>1828</ele>
        <time>2012-03-23T15:54:52Z</time>
      </trkpt>
      <trkpt lat="45.32637" lon="6.21225">
        <ele>1836</ele>
        <time>2012-03-23T15:54:52Z</time>
      </trkpt>
      <trkpt lat="45.32642" lon="6.21192">
        <ele>1839</ele>
        <time>2012-03-23T15:54:52Z</time>
      </trkpt>
      <trkpt lat="45.32648" lon="6.21166">
        <ele>1845</ele>
        <time>2012-03-23T15:54:52Z</time>
      </trkpt>
      <trkpt lat="45.32653" lon="6.21129">
        <ele>1852</ele>
        <time>2012-03-23T15:54:52Z</time>
      </trkpt>
      <trkpt lat="45.32654" lon="6.21104">
        <ele>1856</ele>
        <time>2012-03-23T15:54:52Z</time>
      </trkpt>
      <trkpt lat="45.32655" lon="6.21066">
        <ele>1859</ele>
        <time>2012-03-23T15:54:52Z</time>
      </trkpt>
      <trkpt lat="45.32664" lon="6.21028">
        <ele>1860</ele>
        <time>2012-03-23T15:54:52Z</time>
      </trkpt>
      <trkpt lat="45.32672" lon="6.21004">
        <ele>1862</ele>
        <time>2012-03-23T15:54:52Z</time>
      </trkpt>
      <trkpt lat="45.3268" lon="6.20978">
        <ele>1862</ele>
        <time>2012-03-23T15:54:52Z</time>
      </trkpt>
      <trkpt lat="45.32688" lon="6.20953">
        <ele>1863</ele>
        <time>2012-03-23T15:54:52Z</time>
      </trkpt>
      <trkpt lat="45.32699" lon="6.20902">
        <ele>1865</ele>
        <time>2012-03-23T15:54:52Z</time>
      </trkpt>
      <trkpt lat="45.32705" lon="6.20878">
        <ele>1867</ele>
        <time>2012-03-23T15:54:52Z</time>
      </trkpt>
      <trkpt lat="45.32703" lon="6.20837">
        <ele>1871</ele>
        <time>2012-03-23T15:54:52Z</time>
      </trkpt>
      <trkpt lat="45.32706" lon="6.20798">
        <ele>1877</ele>
        <time>2012-03-23T15:54:52Z</time>
      </trkpt>
      <trkpt lat="45.3271" lon="6.20753">
        <ele>1881</ele>
        <time>2012-03-23T15:54:52Z</time>
      </trkpt>
      <trkpt lat="45.32715" lon="6.20728">
        <ele>1883</ele>
        <time>2012-03-23T15:54:52Z</time>
      </trkpt>
      <trkpt lat="45.32721" lon="6.20694">
        <ele>1886</ele>
        <time>2012-03-23T15:54:52Z</time>
      </trkpt>
      <trkpt lat="45.32712" lon="6.20663">
        <ele>1885</ele>
        <time>2012-03-23T15:54:52Z</time>
      </trkpt>
      <trkpt lat="45.32711" lon="6.20631">
        <ele>1889</ele>
        <time>2012-03-23T15:54:52Z</time>
      </trkpt>
      <trkpt lat="45.3272" lon="6.2059">
        <ele>1893</ele>
        <time>2012-03-23T15:54:52Z</time>
      </trkpt>
      <trkpt lat="45.32726" lon="6.20564">
        <ele>1893</ele>
        <time>2012-03-23T15:54:52Z</time>
      </trkpt>
      <trkpt lat="45.32741" lon="6.20524">
        <ele>1897</ele>
        <time>2012-03-23T15:54:52Z</time>
      </trkpt>
      <trkpt lat="45.32754" lon="6.20487">
        <ele>1900</ele>
        <time>2012-03-23T15:54:52Z</time>
      </trkpt>
      <trkpt lat="45.32758" lon="6.20463">
        <ele>1905</ele>
        <time>2012-03-23T15:54:52Z</time>
      </trkpt>
      <trkpt lat="45.32758" lon="6.20425">
        <ele>1912</ele>
        <time>2012-03-23T15:54:52Z</time>
      </trkpt>
      <trkpt lat="45.32752" lon="6.20381">
        <ele>1915</ele>
        <time>2012-03-23T15:54:52Z</time>
      </trkpt>
      <trkpt lat="45.32749" lon="6.20356">
        <ele>1917</ele>
        <time>2012-03-23T15:54:52Z</time>
      </trkpt>
      <trkpt lat="45.32751" lon="6.20329">
        <ele>1921</ele>
        <time>2012-03-23T15:54:52Z</time>
      </trkpt>
      <trkpt lat="45.32757" lon="6.20285">
        <ele>1923</ele>
        <time>2012-03-23T15:54:52Z</time>
      </trkpt>
      <trkpt lat="45.32761" lon="6.2026">
        <ele>1923</ele>
        <time>2012-03-23T15:54:52Z</time>
      </trkpt>
      <trkpt lat="45.32762" lon="6.20232">
        <ele>1922</ele>
        <time>2012-03-23T15:54:52Z</time>
      </trkpt>
      <trkpt lat="45.32764" lon="6.20206">
        <ele>1924</ele>
        <time>2012-03-23T15:54:52Z</time>
      </trkpt>
      <trkpt lat="45.32768" lon="6.20181">
        <ele>1925</ele>
        <time>2012-03-23T15:54:52Z</time>
      </trkpt>
      <trkpt lat="45.32772" lon="6.20154">
        <ele>1925</ele>
        <time>2012-03-23T15:54:52Z</time>
      </trkpt>
      <trkpt lat="45.32777" lon="6.20128">
        <ele>1927</ele>
        <time>2012-03-23T15:54:52Z</time>
      </trkpt>
      <trkpt lat="45.32782" lon="6.20087">
        <ele>1930</ele>
        <time>2012-03-23T15:54:52Z</time>
      </trkpt>
      <trkpt lat="45.32785" lon="6.20059">
        <ele>1932</ele>
        <time>2012-03-23T15:54:52Z</time>
      </trkpt>
      <trkpt lat="45.32795" lon="6.20016">
        <ele>1936</ele>
        <time>2012-03-23T15:54:52Z</time>
      </trkpt>
      <trkpt lat="45.32801" lon="6.1998">
        <ele>1941</ele>
        <time>2012-03-23T15:54:52Z</time>
      </trkpt>
      <trkpt lat="45.32814" lon="6.1996">
        <ele>1946</ele>
        <time>2012-03-23T15:54:52Z</time>
      </trkpt>
      <trkpt lat="45.32825" lon="6.19936">
        <ele>1954</ele>
        <time>2012-03-23T15:54:52Z</time>
      </trkpt>
      <trkpt lat="45.3284" lon="6.19917">
        <ele>1961</ele>
        <time>2012-03-23T15:54:52Z</time>
      </trkpt>
      <trkpt lat="45.32862" lon="6.19896">
        <ele>1967</ele>
        <time>2012-03-23T15:54:52Z</time>
      </trkpt>
      <trkpt lat="45.32886" lon="6.19878">
        <ele>1975</ele>
        <time>2012-03-23T15:54:52Z</time>
      </trkpt>
      <trkpt lat="45.32892" lon="6.19848">
        <ele>1981</ele>
        <time>2012-03-23T15:54:52Z</time>
      </trkpt>
      <trkpt lat="45.329" lon="6.19817">
        <ele>1988</ele>
        <time>2012-03-23T15:54:52Z</time>
      </trkpt>
      <trkpt lat="45.32911" lon="6.19788">
        <ele>1996</ele>
        <time>2012-03-23T15:54:52Z</time>
      </trkpt>
      <trkpt lat="45.32924" lon="6.19756">
        <ele>2005</ele>
        <time>2012-03-23T15:54:52Z</time>
      </trkpt>
      <trkpt lat="45.32941" lon="6.19727">
        <ele>2011</ele>
        <time>2012-03-23T15:54:52Z</time>
      </trkpt>
      <trkpt lat="45.32956" lon="6.19705">
        <ele>2015</ele>
        <time>2012-03-23T15:54:52Z</time>
      </trkpt>
      <trkpt lat="45.32965" lon="6.19674">
        <ele>2019</ele>
        <time>2012-03-23T15:54:52Z</time>
      </trkpt>
      <trkpt lat="45.3298" lon="6.19642">
        <ele>2023</ele>
        <time>2012-03-23T15:54:52Z</time>
      </trkpt>
      <trkpt lat="45.32989" lon="6.19603">
        <ele>2032</ele>
        <time>2012-03-23T15:54:52Z</time>
      </trkpt>
      <trkpt lat="45.32998" lon="6.19581">
        <ele>2038</ele>
        <time>2012-03-23T15:54:52Z</time>
      </trkpt>
      <trkpt lat="45.33017" lon="6.19552">
        <ele>2047</ele>
        <time>2012-03-23T15:54:52Z</time>
      </trkpt>
      <trkpt lat="45.33033" lon="6.19542">
        <ele>2053</ele>
        <time>2012-03-23T15:54:52Z</time>
      </trkpt>
      <trkpt lat="45.33054" lon="6.19519">
        <ele>2062</ele>
        <time>2012-03-23T15:54:52Z</time>
      </trkpt>
      <trkpt lat="45.33067" lon="6.19503">
        <ele>2068</ele>
        <time>2012-03-23T15:54:52Z</time>
      </trkpt>
      <trkpt lat="45.33084" lon="6.19486">
        <ele>2073</ele>
        <time>2012-03-23T15:54:52Z</time>
      </trkpt>
      <trkpt lat="45.33098" lon="6.19471">
        <ele>2076</ele>
        <time>2012-03-23T15:54:52Z</time>
      </trkpt>
      <trkpt lat="45.33124" lon="6.19455">
        <ele>2083</ele>
        <time>2012-03-23T15:54:52Z</time>
      </trkpt>
      <trkpt lat="45.33137" lon="6.19433">
        <ele>2088</ele>
        <time>2012-03-23T15:54:52Z</time>
      </trkpt>
      <trkpt lat="45.33155" lon="6.19407">
        <ele>2092</ele>
        <time>2012-03-23T15:54:52Z</time>
      </trkpt>
      <trkpt lat="45.33159" lon="6.19374">
        <ele>2100</ele>
        <time>2012-03-23T15:54:52Z</time>
      </trkpt>
      <trkpt lat="45.33158" lon="6.19348">
        <ele>2106</ele>
        <time>2012-03-23T15:54:52Z</time>
      </trkpt>
      <trkpt lat="45.33166" lon="6.1932">
        <ele>2113</ele>
        <time>2012-03-23T15:54:52Z</time>
      </trkpt>
      <trkpt lat="45.33176" lon="6.19285">
        <ele>2118</ele>
        <time>2012-03-23T15:54:52Z</time>
      </trkpt>
      <trkpt lat="45.33185" lon="6.19255">
        <ele>2125</ele>
        <time>2012-03-23T15:54:52Z</time>
      </trkpt>
      <trkpt lat="45.33196" lon="6.19229">
        <ele>2133</ele>
        <time>2012-03-23T15:54:52Z</time>
      </trkpt>
      <trkpt lat="45.33204" lon="6.19201">
        <ele>2141</ele>
        <time>2012-03-23T15:54:52Z</time>
      </trkpt>
      <trkpt lat="45.3321" lon="6.19178">
        <ele>2145</ele>
        <time>2012-03-23T15:54:52Z</time>
      </trkpt>
      <trkpt lat="45.33219" lon="6.19157">
        <ele>2152</ele>
        <time>2012-03-23T15:54:52Z</time>
      </trkpt>
      <trkpt lat="45.33228" lon="6.19135">
        <ele>2157</ele>
        <time>2012-03-23T15:54:52Z</time>
      </trkpt>
      <trkpt lat="45.33234" lon="6.19107">
        <ele>2165</ele>
        <time>2012-03-23T15:54:52Z</time>
      </trkpt>
      <trkpt lat="45.3324" lon="6.19069">
        <ele>2173</ele>
        <time>2012-03-23T15:54:52Z</time>
      </trkpt>
      <trkpt lat="45.33248" lon="6.19039">
        <ele>2181</ele>
        <time>2012-03-23T15:54:52Z</time>
      </trkpt>
      <trkpt lat="45.33255" lon="6.19025">
        <ele>2187</ele>
        <time>2012-03-23T15:54:52Z</time>
      </trkpt>
      <trkpt lat="45.33261" lon="6.19006">
        <ele>2196</ele>
        <time>2012-03-23T15:54:52Z</time>
      </trkpt>
      <trkpt lat="45.33266" lon="6.1899">
        <ele>2202</ele>
        <time>2012-03-23T15:54:52Z</time>
      </trkpt>
      <trkpt lat="45.33276" lon="6.18989">
        <ele>2205</ele>
        <time>2012-03-23T15:54:52Z</time>
      </trkpt>
      <trkpt lat="45.33277" lon="6.18966">
        <ele>2210</ele>
        <time>2012-03-23T15:54:52Z</time>
      </trkpt>
      <trkpt lat="45.33284" lon="6.18949">
        <ele>2219</ele>
        <time>2012-03-23T15:54:52Z</time>
      </trkpt>
      <trkpt lat="45.33284" lon="6.18925">
        <ele>2225</ele>
        <time>2012-03-23T15:54:52Z</time>
      </trkpt>
      <trkpt lat="45.3328" lon="6.189">
        <ele>2230</ele>
        <time>2012-03-23T15:54:52Z</time>
      </trkpt>
      <trkpt lat="45.33303" lon="6.18891">
        <ele>2241</ele>
        <time>2012-03-23T15:54:52Z</time>
      </trkpt>
      <trkpt lat="45.33299" lon="6.18868">
        <ele>2248</ele>
        <time>2012-03-23T15:54:52Z</time>
      </trkpt>
      <trkpt lat="45.33281" lon="6.18846">
        <ele>2256</ele>
        <time>2012-03-23T15:54:52Z</time>
      </trkpt>
      <trkpt lat="45.33275" lon="6.18831">
        <ele>2265</ele>
        <time>2012-03-23T15:54:52Z</time>
      </trkpt>
      <trkpt lat="45.33298" lon="6.18825">
        <ele>2269</ele>
        <time>2012-03-23T15:54:52Z</time>
      </trkpt>
      <trkpt lat="45.33318" lon="6.18828">
        <ele>2274</ele>
        <time>2012-03-23T15:54:52Z</time>
      </trkpt>
      <trkpt lat="45.33328" lon="6.18825">
        <ele>2280</ele>
        <time>2012-03-23T15:54:52Z</time>
      </trkpt>
      <trkpt lat="45.33313" lon="6.18797">
        <ele>2287</ele>
        <time>2012-03-23T15:54:52Z</time>
      </trkpt>
      <trkpt lat="45.33332" lon="6.18798">
        <ele>2295</ele>
        <time>2012-03-23T15:54:52Z</time>
      </trkpt>
      <trkpt lat="45.33323" lon="6.18776">
        <ele>2299</ele>
        <time>2012-03-23T15:54:52Z</time>
      </trkpt>
      <trkpt lat="45.33324" lon="6.18751">
        <ele>2287</ele>
        <time>2012-03-23T15:54:52Z</time>
      </trkpt>
      <trkpt lat="45.33338" lon="6.18726">
        <ele>2278</ele>
        <time>2012-03-23T15:54:52Z</time>
      </trkpt>
      <trkpt lat="45.33349" lon="6.18701">
        <ele>2273</ele>
        <time>2012-03-23T15:54:52Z</time>
      </trkpt>
      <trkpt lat="45.3334" lon="6.18685">
        <ele>2265</ele>
        <time>2012-03-23T15:54:52Z</time>
      </trkpt>
      <trkpt lat="45.33323" lon="6.18667">
        <ele>2254</ele>
        <time>2012-03-23T15:54:52Z</time>
      </trkpt>
      <trkpt lat="45.33332" lon="6.18644">
        <ele>2247</ele>
        <time>2012-03-23T15:54:52Z</time>
      </trkpt>
      <trkpt lat="45.33325" lon="6.18622">
        <ele>2234</ele>
        <time>2012-03-23T15:54:52Z</time>
      </trkpt>
      <trkpt lat="45.33315" lon="6.18588">
        <ele>2222</ele>
        <time>2012-03-23T15:54:52Z</time>
      </trkpt>
      <trkpt lat="45.33306" lon="6.18563">
        <ele>2216</ele>
        <time>2012-03-23T15:54:52Z</time>
      </trkpt>
      <trkpt lat="45.333" lon="6.18535">
        <ele>2205</ele>
        <time>2012-03-23T15:54:52Z</time>
      </trkpt>
      <trkpt lat="45.33313" lon="6.18511">
        <ele>2194</ele>
        <time>2012-03-23T15:54:52Z</time>
      </trkpt>
      <trkpt lat="45.3333" lon="6.18505">
        <ele>2190</ele>
        <time>2012-03-23T15:54:52Z</time>
      </trkpt>
      <trkpt lat="45.33364" lon="6.1851">
        <ele>2186</ele>
        <time>2012-03-23T15:54:52Z</time>
      </trkpt>
      <trkpt lat="45.33383" lon="6.18515">
        <ele>2188</ele>
        <time>2012-03-23T15:54:52Z</time>
      </trkpt>
      <trkpt lat="45.33422" lon="6.18536">
        <ele>2202</ele>
        <time>2012-03-23T15:54:52Z</time>
      </trkpt>
      <trkpt lat="45.33451" lon="6.18563">
        <ele>2205</ele>
        <time>2012-03-23T15:54:52Z</time>
      </trkpt>
      <trkpt lat="45.33466" lon="6.18574">
        <ele>2208</ele>
        <time>2012-03-23T15:54:52Z</time>
      </trkpt>
      <trkpt lat="45.33494" lon="6.18576">
        <ele>2215</ele>
        <time>2012-03-23T15:54:52Z</time>
      </trkpt>
      <trkpt lat="45.33518" lon="6.18586">
        <ele>2221</ele>
        <time>2012-03-23T15:54:52Z</time>
      </trkpt>
      <trkpt lat="45.33537" lon="6.18607">
        <ele>2226</ele>
        <time>2012-03-23T15:54:52Z</time>
      </trkpt>
      <trkpt lat="45.33557" lon="6.18626">
        <ele>2230</ele>
        <time>2012-03-23T15:54:52Z</time>
      </trkpt>
      <trkpt lat="45.33576" lon="6.18645">
        <ele>2236</ele>
        <time>2012-03-23T15:54:52Z</time>
      </trkpt>
      <trkpt lat="45.33594" lon="6.18661">
        <ele>2241</ele>
        <time>2012-03-23T15:54:52Z</time>
      </trkpt>
      <trkpt lat="45.33614" lon="6.1868">
        <ele>2246</ele>
        <time>2012-03-23T15:54:52Z</time>
      </trkpt>
      <trkpt lat="45.33632" lon="6.18699">
        <ele>2253</ele>
        <time>2012-03-23T15:54:52Z</time>
      </trkpt>
      <trkpt lat="45.33649" lon="6.18716">
        <ele>2259</ele>
        <time>2012-03-23T15:54:52Z</time>
      </trkpt>
      <trkpt lat="45.3367" lon="6.18729">
        <ele>2264</ele>
        <time>2012-03-23T15:54:52Z</time>
      </trkpt>
      <trkpt lat="45.33691" lon="6.18741">
        <ele>2272</ele>
        <time>2012-03-23T15:54:52Z</time>
      </trkpt>
      <trkpt lat="45.33714" lon="6.1875">
        <ele>2278</ele>
        <time>2012-03-23T15:54:52Z</time>
      </trkpt>
      <trkpt lat="45.33733" lon="6.18762">
        <ele>2284</ele>
        <time>2012-03-23T15:54:52Z</time>
      </trkpt>
      <trkpt lat="45.33753" lon="6.18748">
        <ele>2293</ele>
        <time>2012-03-23T15:54:52Z</time>
      </trkpt>
      <trkpt lat="45.33769" lon="6.18757">
        <ele>2298</ele>
        <time>2012-03-23T15:54:52Z</time>
      </trkpt>
      <trkpt lat="45.33794" lon="6.18774">
        <ele>2304</ele>
        <time>2012-03-23T15:54:52Z</time>
      </trkpt>
      <trkpt lat="45.33811" lon="6.18787">
        <ele>2311</ele>
        <time>2012-03-23T15:54:52Z</time>
      </trkpt>
      <trkpt lat="45.33822" lon="6.18808">
        <ele>2319</ele>
        <time>2012-03-23T15:54:52Z</time>
      </trkpt>
      <trkpt lat="45.33831" lon="6.18831">
        <ele>2323</ele>
        <time>2012-03-23T15:54:52Z</time>
      </trkpt>
      <trkpt lat="45.33845" lon="6.1886">
        <ele>2329</ele>
        <time>2012-03-23T15:54:52Z</time>
      </trkpt>
      <trkpt lat="45.33852" lon="6.18892">
        <ele>2337</ele>
        <time>2012-03-23T15:54:52Z</time>
      </trkpt>
      <trkpt lat="45.33861" lon="6.18916">
        <ele>2344</ele>
        <time>2012-03-23T15:54:52Z</time>
      </trkpt>
      <trkpt lat="45.33875" lon="6.18937">
        <ele>2352</ele>
        <time>2012-03-23T15:54:52Z</time>
      </trkpt>
      <trkpt lat="45.3389" lon="6.18954">
        <ele>2361</ele>
        <time>2012-03-23T15:54:52Z</time>
      </trkpt>
      <trkpt lat="45.33893" lon="6.18977">
        <ele>2369</ele>
        <time>2012-03-23T15:54:52Z</time>
      </trkpt>
      <trkpt lat="45.33894" lon="6.19001">
        <ele>2377</ele>
        <time>2012-03-23T15:54:52Z</time>
      </trkpt>
      <trkpt lat="45.33897" lon="6.19018">
        <ele>2383</ele>
        <time>2012-03-23T15:54:52Z</time>
      </trkpt>
      <trkpt lat="45.33908" lon="6.19032">
        <ele>2395</ele>
        <time>2012-03-23T15:54:52Z</time>
      </trkpt>
      <trkpt lat="45.33913" lon="6.19053">
        <ele>2406</ele>
        <time>2012-03-23T15:54:52Z</time>
      </trkpt>
      <trkpt lat="45.33922" lon="6.19076">
        <ele>2421</ele>
        <time>2012-03-23T15:54:52Z</time>
      </trkpt>
      <trkpt lat="45.33927" lon="6.19097">
        <ele>2436</ele>
        <time>2012-03-23T15:54:52Z</time>
      </trkpt>
      <trkpt lat="45.33927" lon="6.19112">
        <ele>2446</ele>
        <time>2012-03-23T15:54:52Z</time>
      </trkpt>
      <trkpt lat="45.33926" lon="6.19131">
        <ele>2457</ele>
        <time>2012-03-23T15:54:52Z</time>
      </trkpt>
      <trkpt lat="45.33927" lon="6.19153">
        <ele>2472</ele>
        <time>2012-03-23T15:54:52Z</time>
      </trkpt>
      <trkpt lat="45.33941" lon="6.19149">
        <ele>2476</ele>
        <time>2012-03-23T15:54:52Z</time>
      </trkpt>
      <trkpt lat="45.33962" lon="6.19134">
        <ele>2470</ele>
        <time>2012-03-23T15:54:52Z</time>
      </trkpt>
      <trkpt lat="45.33978" lon="6.19141">
        <ele>2466</ele>
        <time>2012-03-23T15:54:52Z</time>
      </trkpt>
      <trkpt lat="45.33979" lon="6.19165">
        <ele>2456</ele>
        <time>2012-03-23T15:54:52Z</time>
      </trkpt>
      <trkpt lat="45.33979" lon="6.19192">
        <ele>2445</ele>
        <time>2012-03-23T15:54:52Z</time>
      </trkpt>
      <trkpt lat="45.33979" lon="6.19218">
        <ele>2428</ele>
        <time>2012-03-23T15:54:52Z</time>
      </trkpt>
      <trkpt lat="45.33981" lon="6.19251">
        <ele>2411</ele>
        <time>2012-03-23T15:54:52Z</time>
      </trkpt>
      <trkpt lat="45.33977" lon="6.19281">
        <ele>2395</ele>
        <time>2012-03-23T15:54:52Z</time>
      </trkpt>
      <trkpt lat="45.33988" lon="6.19309">
        <ele>2384</ele>
        <time>2012-03-23T15:54:52Z</time>
      </trkpt>
      <trkpt lat="45.3399" lon="6.19339">
        <ele>2379</ele>
        <time>2012-03-23T15:54:52Z</time>
      </trkpt>
      <trkpt lat="45.3399" lon="6.19365">
        <ele>2371</ele>
        <time>2012-03-23T15:54:52Z</time>
      </trkpt>
      <trkpt lat="45.33986" lon="6.1939">
        <ele>2364</ele>
        <time>2012-03-23T15:54:52Z</time>
      </trkpt>
      <trkpt lat="45.33998" lon="6.19421">
        <ele>2349</ele>
        <time>2012-03-23T15:54:52Z</time>
      </trkpt>
      <trkpt lat="45.34003" lon="6.19451">
        <ele>2340</ele>
        <time>2012-03-23T15:54:52Z</time>
      </trkpt>
      <trkpt lat="45.34008" lon="6.19481">
        <ele>2331</ele>
        <time>2012-03-23T15:54:52Z</time>
      </trkpt>
      <trkpt lat="45.34005" lon="6.1954">
        <ele>2328</ele>
        <time>2012-03-23T15:54:52Z</time>
      </trkpt>
      <trkpt lat="45.34012" lon="6.19562">
        <ele>2320</ele>
        <time>2012-03-23T15:54:52Z</time>
      </trkpt>
      <trkpt lat="45.34022" lon="6.1959">
        <ele>2302</ele>
        <time>2012-03-23T15:54:52Z</time>
      </trkpt>
      <trkpt lat="45.34015" lon="6.19622">
        <ele>2299</ele>
        <time>2012-03-23T15:54:52Z</time>
      </trkpt>
      <trkpt lat="45.34008" lon="6.19641">
        <ele>2299</ele>
        <time>2012-03-23T15:54:52Z</time>
      </trkpt>
      <trkpt lat="45.34019" lon="6.19641">
        <ele>2292</ele>
        <time>2012-03-23T15:54:52Z</time>
      </trkpt>
      <trkpt lat="45.34027" lon="6.19662">
        <ele>2288</ele>
        <time>2012-03-23T15:54:52Z</time>
      </trkpt>
      <trkpt lat="45.34037" lon="6.19697">
        <ele>2278</ele>
        <time>2012-03-23T15:54:52Z</time>
      </trkpt>
      <trkpt lat="45.34048" lon="6.19733">
        <ele>2269</ele>
        <time>2012-03-23T15:54:52Z</time>
      </trkpt>
      <trkpt lat="45.34052" lon="6.19756">
        <ele>2268</ele>
        <time>2012-03-23T15:54:52Z</time>
      </trkpt>
      <trkpt lat="45.34052" lon="6.19787">
        <ele>2263</ele>
        <time>2012-03-23T15:54:52Z</time>
      </trkpt>
      <trkpt lat="45.34053" lon="6.19822">
        <ele>2257</ele>
        <time>2012-03-23T15:54:52Z</time>
      </trkpt>
      <trkpt lat="45.3404" lon="6.19853">
        <ele>2255</ele>
        <time>2012-03-23T15:54:52Z</time>
      </trkpt>
      <trkpt lat="45.34014" lon="6.1988">
        <ele>2254</ele>
        <time>2012-03-23T15:54:52Z</time>
      </trkpt>
      <trkpt lat="45.33996" lon="6.19897">
        <ele>2252</ele>
        <time>2012-03-23T15:54:52Z</time>
      </trkpt>
      <trkpt lat="45.33987" lon="6.19931">
        <ele>2248</ele>
        <time>2012-03-23T15:54:52Z</time>
      </trkpt>
      <trkpt lat="45.33984" lon="6.1996">
        <ele>2247</ele>
        <time>2012-03-23T15:54:52Z</time>
      </trkpt>
      <trkpt lat="45.33979" lon="6.20019">
        <ele>2245</ele>
        <time>2012-03-23T15:54:52Z</time>
      </trkpt>
      <trkpt lat="45.33979" lon="6.20045">
        <ele>2241</ele>
        <time>2012-03-23T15:54:52Z</time>
      </trkpt>
      <trkpt lat="45.33974" lon="6.20068">
        <ele>2240</ele>
        <time>2012-03-23T15:54:52Z</time>
      </trkpt>
      <trkpt lat="45.33953" lon="6.20075">
        <ele>2249</ele>
        <time>2012-03-23T15:54:52Z</time>
      </trkpt>
      <trkpt lat="45.33943" lon="6.20099">
        <ele>2255</ele>
        <time>2012-03-23T15:54:52Z</time>
      </trkpt>
      <trkpt lat="45.33943" lon="6.20134">
        <ele>2260</ele>
        <time>2012-03-23T15:54:52Z</time>
      </trkpt>
      <trkpt lat="45.33933" lon="6.20151">
        <ele>2265</ele>
        <time>2012-03-23T15:54:52Z</time>
      </trkpt>
      <trkpt lat="45.33918" lon="6.20166">
        <ele>2266</ele>
        <time>2012-03-23T15:54:52Z</time>
      </trkpt>
      <trkpt lat="45.339" lon="6.20188">
        <ele>2271</ele>
        <time>2012-03-23T15:54:52Z</time>
      </trkpt>
      <trkpt lat="45.33888" lon="6.20219">
        <ele>2275</ele>
        <time>2012-03-23T15:54:52Z</time>
      </trkpt>
      <trkpt lat="45.33877" lon="6.20249">
        <ele>2278</ele>
        <time>2012-03-23T15:54:52Z</time>
      </trkpt>
      <trkpt lat="45.33862" lon="6.20264">
        <ele>2285</ele>
        <time>2012-03-23T15:54:52Z</time>
      </trkpt>
      <trkpt lat="45.33849" lon="6.20276">
        <ele>2291</ele>
        <time>2012-03-23T15:54:52Z</time>
      </trkpt>
      <trkpt lat="45.33832" lon="6.20282">
        <ele>2294</ele>
        <time>2012-03-23T15:54:52Z</time>
      </trkpt>
      <trkpt lat="45.33816" lon="6.20281">
        <ele>2298</ele>
        <time>2012-03-23T15:54:52Z</time>
      </trkpt>
      <trkpt lat="45.33799" lon="6.20281">
        <ele>2305</ele>
        <time>2012-03-23T15:54:52Z</time>
      </trkpt>
      <trkpt lat="45.33784" lon="6.20275">
        <ele>2307</ele>
        <time>2012-03-23T15:54:52Z</time>
      </trkpt>
      <trkpt lat="45.33764" lon="6.20264">
        <ele>2311</ele>
        <time>2012-03-23T15:54:52Z</time>
      </trkpt>
      <trkpt lat="45.33746" lon="6.2025">
        <ele>2318</ele>
        <time>2012-03-23T15:54:52Z</time>
      </trkpt>
      <trkpt lat="45.33725" lon="6.20242">
        <ele>2323</ele>
        <time>2012-03-23T15:54:52Z</time>
      </trkpt>
      <trkpt lat="45.33719" lon="6.20223">
        <ele>2334</ele>
        <time>2012-03-23T15:54:52Z</time>
      </trkpt>
      <trkpt lat="45.33695" lon="6.20213">
        <ele>2340</ele>
        <time>2012-03-23T15:54:52Z</time>
      </trkpt>
      <trkpt lat="45.33688" lon="6.20195">
        <ele>2348</ele>
        <time>2012-03-23T15:54:52Z</time>
      </trkpt>
      <trkpt lat="45.33673" lon="6.20201">
        <ele>2352</ele>
        <time>2012-03-23T15:54:52Z</time>
      </trkpt>
      <trkpt lat="45.33662" lon="6.20183">
        <ele>2361</ele>
        <time>2012-03-23T15:54:52Z</time>
      </trkpt>
      <trkpt lat="45.33645" lon="6.20168">
        <ele>2370</ele>
        <time>2012-03-23T15:54:52Z</time>
      </trkpt>
      <trkpt lat="45.33642" lon="6.20141">
        <ele>2377</ele>
        <time>2012-03-23T15:54:52Z</time>
      </trkpt>
      <trkpt lat="45.33649" lon="6.20118">
        <ele>2382</ele>
        <time>2012-03-23T15:54:52Z</time>
      </trkpt>
      <trkpt lat="45.33646" lon="6.20103">
        <ele>2390</ele>
        <time>2012-03-23T15:54:52Z</time>
      </trkpt>
      <trkpt lat="45.3365" lon="6.20084">
        <ele>2395</ele>
        <time>2012-03-23T15:54:52Z</time>
      </trkpt>
      <trkpt lat="45.33638" lon="6.20077">
        <ele>2387</ele>
        <time>2012-03-23T15:54:52Z</time>
      </trkpt>
      <trkpt lat="45.33623" lon="6.2007">
        <ele>2377</ele>
        <time>2012-03-23T15:54:52Z</time>
      </trkpt>
      <trkpt lat="45.33619" lon="6.20047">
        <ele>2367</ele>
        <time>2012-03-23T15:54:52Z</time>
      </trkpt>
      <trkpt lat="45.33622" lon="6.1998">
        <ele>2364</ele>
        <time>2012-03-23T15:54:52Z</time>
      </trkpt>
      <trkpt lat="45.33601" lon="6.19954">
        <ele>2362</ele>
        <time>2012-03-23T15:54:52Z</time>
      </trkpt>
      <trkpt lat="45.33587" lon="6.19955">
        <ele>2348</ele>
        <time>2012-03-23T15:54:52Z</time>
      </trkpt>
      <trkpt lat="45.3357" lon="6.19968">
        <ele>2336</ele>
        <time>2012-03-23T15:54:52Z</time>
      </trkpt>
      <trkpt lat="45.33555" lon="6.19973">
        <ele>2324</ele>
        <time>2012-03-23T15:54:52Z</time>
      </trkpt>
      <trkpt lat="45.33543" lon="6.19932">
        <ele>2322</ele>
        <time>2012-03-23T15:54:52Z</time>
      </trkpt>
      <trkpt lat="45.33528" lon="6.19935">
        <ele>2312</ele>
        <time>2012-03-23T15:54:52Z</time>
      </trkpt>
      <trkpt lat="45.33524" lon="6.19902">
        <ele>2306</ele>
        <time>2012-03-23T15:54:52Z</time>
      </trkpt>
      <trkpt lat="45.33514" lon="6.19911">
        <ele>2295</ele>
        <time>2012-03-23T15:54:52Z</time>
      </trkpt>
      <trkpt lat="45.33505" lon="6.19861">
        <ele>2281</ele>
        <time>2012-03-23T15:54:52Z</time>
      </trkpt>
      <trkpt lat="45.33498" lon="6.1984">
        <ele>2274</ele>
        <time>2012-03-23T15:54:52Z</time>
      </trkpt>
      <trkpt lat="45.33489" lon="6.19797">
        <ele>2272</ele>
        <time>2012-03-23T15:54:52Z</time>
      </trkpt>
      <trkpt lat="45.33492" lon="6.19774">
        <ele>2270</ele>
        <time>2012-03-23T15:54:52Z</time>
      </trkpt>
      <trkpt lat="45.33498" lon="6.1974">
        <ele>2269</ele>
        <time>2012-03-23T15:54:52Z</time>
      </trkpt>
      <trkpt lat="45.33504" lon="6.19717">
        <ele>2267</ele>
        <time>2012-03-23T15:54:52Z</time>
      </trkpt>
      <trkpt lat="45.3349" lon="6.1968">
        <ele>2265</ele>
        <time>2012-03-23T15:54:52Z</time>
      </trkpt>
      <trkpt lat="45.33487" lon="6.19654">
        <ele>2261</ele>
        <time>2012-03-23T15:54:52Z</time>
      </trkpt>
      <trkpt lat="45.33471" lon="6.19654">
        <ele>2250</ele>
        <time>2012-03-23T15:54:52Z</time>
      </trkpt>
      <trkpt lat="45.33453" lon="6.19663">
        <ele>2237</ele>
        <time>2012-03-23T15:54:52Z</time>
      </trkpt>
      <trkpt lat="45.33436" lon="6.19664">
        <ele>2222</ele>
        <time>2012-03-23T15:54:52Z</time>
      </trkpt>
      <trkpt lat="45.33418" lon="6.19654">
        <ele>2207</ele>
        <time>2012-03-23T15:54:52Z</time>
      </trkpt>
      <trkpt lat="45.33401" lon="6.19653">
        <ele>2198</ele>
        <time>2012-03-23T15:54:52Z</time>
      </trkpt>
      <trkpt lat="45.33366" lon="6.19658">
        <ele>2187</ele>
        <time>2012-03-23T15:54:52Z</time>
      </trkpt>
      <trkpt lat="45.33345" lon="6.19672">
        <ele>2184</ele>
        <time>2012-03-23T15:54:52Z</time>
      </trkpt>
      <trkpt lat="45.33309" lon="6.19671">
        <ele>2182</ele>
        <time>2012-03-23T15:54:52Z</time>
      </trkpt>
      <trkpt lat="45.3328" lon="6.19658">
        <ele>2181</ele>
        <time>2012-03-23T15:54:52Z</time>
      </trkpt>
      <trkpt lat="45.33269" lon="6.19664">
        <ele>2181</ele>
        <time>2012-03-23T15:54:52Z</time>
      </trkpt>
      <trkpt lat="45.33244" lon="6.19664">
        <ele>2169</ele>
        <time>2012-03-23T15:54:52Z</time>
      </trkpt>
      <trkpt lat="45.33217" lon="6.19671">
        <ele>2161</ele>
        <time>2012-03-23T15:54:52Z</time>
      </trkpt>
      <trkpt lat="45.33197" lon="6.1969">
        <ele>2152</ele>
        <time>2012-03-23T15:54:52Z</time>
      </trkpt>
      <trkpt lat="45.33176" lon="6.19701">
        <ele>2146</ele>
        <time>2012-03-23T15:54:52Z</time>
      </trkpt>
      <trkpt lat="45.33164" lon="6.19684">
        <ele>2141</ele>
        <time>2012-03-23T15:54:52Z</time>
      </trkpt>
      <trkpt lat="45.33151" lon="6.19685">
        <ele>2134</ele>
        <time>2012-03-23T15:54:52Z</time>
      </trkpt>
      <trkpt lat="45.33136" lon="6.19689">
        <ele>2123</ele>
        <time>2012-03-23T15:54:52Z</time>
      </trkpt>
      <trkpt lat="45.33124" lon="6.19697">
        <ele>2114</ele>
        <time>2012-03-23T15:54:52Z</time>
      </trkpt>
      <trkpt lat="45.33107" lon="6.19708">
        <ele>2103</ele>
        <time>2012-03-23T15:54:52Z</time>
      </trkpt>
      <trkpt lat="45.33091" lon="6.19713">
        <ele>2086</ele>
        <time>2012-03-23T15:54:52Z</time>
      </trkpt>
      <trkpt lat="45.33075" lon="6.19715">
        <ele>2075</ele>
        <time>2012-03-23T15:54:52Z</time>
      </trkpt>
      <trkpt lat="45.33055" lon="6.19709">
        <ele>2061</ele>
        <time>2012-03-23T15:54:52Z</time>
      </trkpt>
      <trkpt lat="45.33045" lon="6.19726">
        <ele>2057</ele>
        <time>2012-03-23T15:54:52Z</time>
      </trkpt>
      <trkpt lat="45.33037" lon="6.19757">
        <ele>2057</ele>
        <time>2012-03-23T15:54:52Z</time>
      </trkpt>
      <trkpt lat="45.33025" lon="6.19775">
        <ele>2049</ele>
        <time>2012-03-23T15:54:52Z</time>
      </trkpt>
      <trkpt lat="45.32991" lon="6.19777">
        <ele>2032</ele>
        <time>2012-03-23T15:54:52Z</time>
      </trkpt>
      <trkpt lat="45.32987" lon="6.19796">
        <ele>2030</ele>
        <time>2012-03-23T15:54:52Z</time>
      </trkpt>
      <trkpt lat="45.32974" lon="6.19807">
        <ele>2020</ele>
        <time>2012-03-23T15:54:52Z</time>
      </trkpt>
      <trkpt lat="45.32956" lon="6.19813">
        <ele>2012</ele>
        <time>2012-03-23T15:54:52Z</time>
      </trkpt>
      <trkpt lat="45.32937" lon="6.19819">
        <ele>2000</ele>
        <time>2012-03-23T15:54:52Z</time>
      </trkpt>
      <trkpt lat="45.32923" lon="6.19823">
        <ele>1995</ele>
        <time>2012-03-23T15:54:52Z</time>
      </trkpt>
      <trkpt lat="45.32907" lon="6.19836">
        <ele>1986</ele>
        <time>2012-03-23T15:54:52Z</time>
      </trkpt>
      <trkpt lat="45.32901" lon="6.19865">
        <ele>1980</ele>
        <time>2012-03-23T15:54:52Z</time>
      </trkpt>
      <trkpt lat="45.32881" lon="6.19946">
        <ele>1978</ele>
        <time>2012-03-23T15:54:52Z</time>
      </trkpt>
      <trkpt lat="45.32874" lon="6.19979">
        <ele>1976</ele>
        <time>2012-03-23T15:54:52Z</time>
      </trkpt>
      <trkpt lat="45.32862" lon="6.19996">
        <ele>1966</ele>
        <time>2012-03-23T15:54:52Z</time>
      </trkpt>
      <trkpt lat="45.32847" lon="6.19999">
        <ele>1958</ele>
        <time>2012-03-23T15:54:52Z</time>
      </trkpt>
      <trkpt lat="45.32831" lon="6.20014">
        <ele>1947</ele>
        <time>2012-03-23T15:54:52Z</time>
      </trkpt>
      <trkpt lat="45.32826" lon="6.20049">
        <ele>1945</ele>
        <time>2012-03-23T15:54:52Z</time>
      </trkpt>
      <trkpt lat="45.3282" lon="6.20088">
        <ele>1942</ele>
        <time>2012-03-23T15:54:52Z</time>
      </trkpt>
      <trkpt lat="45.32813" lon="6.20131">
        <ele>1939</ele>
        <time>2012-03-23T15:54:52Z</time>
      </trkpt>
      <trkpt lat="45.32803" lon="6.20198">
        <ele>1936</ele>
        <time>2012-03-23T15:54:52Z</time>
      </trkpt>
      <trkpt lat="45.32791" lon="6.2022">
        <ele>1930</ele>
        <time>2012-03-23T15:54:52Z</time>
      </trkpt>
      <trkpt lat="45.32773" lon="6.20241">
        <ele>1922</ele>
        <time>2012-03-23T15:54:52Z</time>
      </trkpt>
      <trkpt lat="45.32756" lon="6.20296">
        <ele>1921</ele>
        <time>2012-03-23T15:54:52Z</time>
      </trkpt>
      <trkpt lat="45.32751" lon="6.20336">
        <ele>1916</ele>
        <time>2012-03-23T15:54:52Z</time>
      </trkpt>
      <trkpt lat="45.32756" lon="6.20407">
        <ele>1910</ele>
        <time>2012-03-23T15:54:52Z</time>
      </trkpt>
      <trkpt lat="45.32758" lon="6.20435">
        <ele>1907</ele>
        <time>2012-03-23T15:54:52Z</time>
      </trkpt>
      <trkpt lat="45.32757" lon="6.20461">
        <ele>1902</ele>
        <time>2012-03-23T15:54:52Z</time>
      </trkpt>
      <trkpt lat="45.32754" lon="6.2048">
        <ele>1899</ele>
        <time>2012-03-23T15:54:52Z</time>
      </trkpt>
      <trkpt lat="45.3274" lon="6.20521">
        <ele>1895</ele>
        <time>2012-03-23T15:54:52Z</time>
      </trkpt>
      <trkpt lat="45.32731" lon="6.20543">
        <ele>1893</ele>
        <time>2012-03-23T15:54:52Z</time>
      </trkpt>
      <trkpt lat="45.32715" lon="6.20608">
        <ele>1889</ele>
        <time>2012-03-23T15:54:52Z</time>
      </trkpt>
      <trkpt lat="45.32708" lon="6.20628">
        <ele>1886</ele>
        <time>2012-03-23T15:54:52Z</time>
      </trkpt>
      <trkpt lat="45.32697" lon="6.20658">
        <ele>1881</ele>
        <time>2012-03-23T15:54:52Z</time>
      </trkpt>
      <trkpt lat="45.32698" lon="6.20699">
        <ele>1876</ele>
        <time>2012-03-23T15:54:52Z</time>
      </trkpt>
      <trkpt lat="45.32699" lon="6.20725">
        <ele>1874</ele>
        <time>2012-03-23T15:54:52Z</time>
      </trkpt>
      <trkpt lat="45.32699" lon="6.20751">
        <ele>1873</ele>
        <time>2012-03-23T15:54:52Z</time>
      </trkpt>
      <trkpt lat="45.32698" lon="6.20775">
        <ele>1871</ele>
        <time>2012-03-23T15:54:52Z</time>
      </trkpt>
      <trkpt lat="45.32704" lon="6.2082">
        <ele>1870</ele>
        <time>2012-03-23T15:54:52Z</time>
      </trkpt>
      <trkpt lat="45.32704" lon="6.20855">
        <ele>1864</ele>
        <time>2012-03-23T15:54:52Z</time>
      </trkpt>
      <trkpt lat="45.32699" lon="6.20885">
        <ele>1860</ele>
        <time>2012-03-23T15:54:52Z</time>
      </trkpt>
      <trkpt lat="45.3269" lon="6.20927">
        <ele>1857</ele>
        <time>2012-03-23T15:54:52Z</time>
      </trkpt>
      <trkpt lat="45.32664" lon="6.21039">
        <ele>1855</ele>
        <time>2012-03-23T15:54:52Z</time>
      </trkpt>
      <trkpt lat="45.32659" lon="6.21075">
        <ele>1855</ele>
        <time>2012-03-23T15:54:52Z</time>
      </trkpt>
      <trkpt lat="45.32657" lon="6.21106">
        <ele>1853</ele>
        <time>2012-03-23T15:54:52Z</time>
      </trkpt>
      <trkpt lat="45.32649" lon="6.2113">
        <ele>1852</ele>
        <time>2012-03-23T15:54:52Z</time>
      </trkpt>
      <trkpt lat="45.32653" lon="6.21149">
        <ele>1844</ele>
        <time>2012-03-23T15:54:52Z</time>
      </trkpt>
      <trkpt lat="45.32649" lon="6.21175">
        <ele>1841</ele>
        <time>2012-03-23T15:54:52Z</time>
      </trkpt>
      <trkpt lat="45.3264" lon="6.2121">
        <ele>1834</ele>
        <time>2012-03-23T15:54:52Z</time>
      </trkpt>
      <trkpt lat="45.32628" lon="6.21247">
        <ele>1830</ele>
        <time>2012-03-23T15:54:52Z</time>
      </trkpt>
      <trkpt lat="45.32625" lon="6.21268">
        <ele>1825</ele>
        <time>2012-03-23T15:54:52Z</time>
      </trkpt>
      <trkpt lat="45.32625" lon="6.21302">
        <ele>1818</ele>
        <time>2012-03-23T15:54:52Z</time>
      </trkpt>
      <trkpt lat="45.32632" lon="6.21328">
        <ele>1813</ele>
        <time>2012-03-23T15:54:52Z</time>
      </trkpt>
      <trkpt lat="45.3263" lon="6.21345">
        <ele>1809</ele>
        <time>2012-03-23T15:54:52Z</time>
      </trkpt>
      <trkpt lat="45.32617" lon="6.21404">
        <ele>1800</ele>
        <time>2012-03-23T15:54:52Z</time>
      </trkpt>
      <trkpt lat="45.32603" lon="6.21455">
        <ele>1798</ele>
        <time>2012-03-23T15:54:52Z</time>
      </trkpt>
      <trkpt lat="45.32597" lon="6.21486">
        <ele>1794</ele>
        <time>2012-03-23T15:54:52Z</time>
      </trkpt>
      <trkpt lat="45.32592" lon="6.21509">
        <ele>1793</ele>
        <time>2012-03-23T15:54:52Z</time>
      </trkpt>
      <trkpt lat="45.3259" lon="6.21532">
        <ele>1792</ele>
        <time>2012-03-23T15:54:52Z</time>
      </trkpt>
      <trkpt lat="45.3259" lon="6.21551">
        <ele>1789</ele>
        <time>2012-03-23T15:54:52Z</time>
      </trkpt>
      <trkpt lat="45.32588" lon="6.21582">
        <ele>1785</ele>
        <time>2012-03-23T15:54:52Z</time>
      </trkpt>
      <trkpt lat="45.32581" lon="6.21632">
        <ele>1782</ele>
        <time>2012-03-23T15:54:52Z</time>
      </trkpt>
      <trkpt lat="45.32575" lon="6.21671">
        <ele>1778</ele>
        <time>2012-03-23T15:54:52Z</time>
      </trkpt>
      <trkpt lat="45.32574" lon="6.21702">
        <ele>1775</ele>
        <time>2012-03-23T15:54:52Z</time>
      </trkpt>
      <trkpt lat="45.32572" lon="6.21725">
        <ele>1773</ele>
        <time>2012-03-23T15:54:52Z</time>
      </trkpt>
      <trkpt lat="45.32561" lon="6.21771">
        <ele>1767</ele>
        <time>2012-03-23T15:54:52Z</time>
      </trkpt>
      <trkpt lat="45.32553" lon="6.21798">
        <ele>1764</ele>
        <time>2012-03-23T15:54:52Z</time>
      </trkpt>
      <trkpt lat="45.32543" lon="6.21842">
        <ele>1760</ele>
        <time>2012-03-23T15:54:52Z</time>
      </trkpt>
      <trkpt lat="45.32539" lon="6.21871">
        <ele>1755</ele>
        <time>2012-03-23T15:54:52Z</time>
      </trkpt>
      <trkpt lat="45.32535" lon="6.21901">
        <ele>1754</ele>
        <time>2012-03-23T15:54:52Z</time>
      </trkpt>
      <trkpt lat="45.32528" lon="6.21945">
        <ele>1749</ele>
        <time>2012-03-23T15:54:52Z</time>
      </trkpt>
      <trkpt lat="45.32507" lon="6.22025">
        <ele>1749</ele>
        <time>2012-03-23T15:54:52Z</time>
      </trkpt>
      <trkpt lat="45.32495" lon="6.22073">
        <ele>1747</ele>
        <time>2012-03-23T15:54:52Z</time>
      </trkpt>
      <trkpt lat="45.32489" lon="6.22087">
        <ele>1748</ele>
        <time>2012-03-23T15:54:52Z</time>
      </trkpt>
      <trkpt lat="45.32498" lon="6.22103">
        <ele>1743</ele>
        <time>2012-03-23T15:54:52Z</time>
      </trkpt>
      <trkpt lat="45.32495" lon="6.22133">
        <ele>1739</ele>
        <time>2012-03-23T15:54:52Z</time>
      </trkpt>
      <trkpt lat="45.3249" lon="6.22159">
        <ele>1734</ele>
        <time>2012-03-23T15:54:52Z</time>
      </trkpt>
      <trkpt lat="45.32484" lon="6.22182">
        <ele>1731</ele>
        <time>2012-03-23T15:54:52Z</time>
      </trkpt>
      <trkpt lat="45.32486" lon="6.22208">
        <ele>1728</ele>
        <time>2012-03-23T15:54:52Z</time>
      </trkpt>
      <trkpt lat="45.32487" lon="6.22237">
        <ele>1723</ele>
        <time>2012-03-23T15:54:52Z</time>
      </trkpt>
      <trkpt lat="45.32481" lon="6.22258">
        <ele>1722</ele>
        <time>2012-03-23T15:54:52Z</time>
      </trkpt>
      <trkpt lat="45.32481" lon="6.22287">
        <ele>1717</ele>
        <time>2012-03-23T15:54:52Z</time>
      </trkpt>
      <trkpt lat="45.32473" lon="6.22302">
        <ele>1713</ele>
        <time>2012-03-23T15:54:52Z</time>
      </trkpt>
      <trkpt lat="45.32458" lon="6.22325">
        <ele>1712</ele>
        <time>2012-03-23T15:54:52Z</time>
      </trkpt>
      <trkpt lat="45.3245" lon="6.22344">
        <ele>1707</ele>
        <time>2012-03-23T15:54:52Z</time>
      </trkpt>
      <trkpt lat="45.32435" lon="6.2238">
        <ele>1701</ele>
        <time>2012-03-23T15:54:52Z</time>
      </trkpt>
      <trkpt lat="45.32426" lon="6.22394">
        <ele>1698</ele>
        <time>2012-03-23T15:54:52Z</time>
      </trkpt>
      <trkpt lat="45.32415" lon="6.2241">
        <ele>1696</ele>
        <time>2012-03-23T15:54:52Z</time>
      </trkpt>
      <trkpt lat="45.32412" lon="6.22431">
        <ele>1689</ele>
        <time>2012-03-23T15:54:52Z</time>
      </trkpt>
      <trkpt lat="45.32406" lon="6.22465">
        <ele>1680</ele>
        <time>2012-03-23T15:54:52Z</time>
      </trkpt>
      <trkpt lat="45.32395" lon="6.22497">
        <ele>1678</ele>
        <time>2012-03-23T15:54:52Z</time>
      </trkpt>
      <trkpt lat="45.32392" lon="6.22514">
        <ele>1672</ele>
        <time>2012-03-23T15:54:52Z</time>
      </trkpt>
      <trkpt lat="45.32385" lon="6.2254">
        <ele>1667</ele>
        <time>2012-03-23T15:54:52Z</time>
      </trkpt>
      <trkpt lat="45.32379" lon="6.22553">
        <ele>1663</ele>
        <time>2012-03-23T15:54:52Z</time>
      </trkpt>
      <trkpt lat="45.3237" lon="6.22569">
        <ele>1659</ele>
        <time>2012-03-23T15:54:52Z</time>
      </trkpt>
      <trkpt lat="45.32352" lon="6.22613">
        <ele>1653</ele>
        <time>2012-03-23T15:54:52Z</time>
      </trkpt>
      <trkpt lat="45.32342" lon="6.22646">
        <ele>1647</ele>
        <time>2012-03-23T15:54:52Z</time>
      </trkpt>
      <trkpt lat="45.32336" lon="6.22674">
        <ele>1643</ele>
        <time>2012-03-23T15:54:52Z</time>
      </trkpt>
      <trkpt lat="45.32335" lon="6.22697">
        <ele>1641</ele>
        <time>2012-03-23T15:54:52Z</time>
      </trkpt>
      <trkpt lat="45.32338" lon="6.2272">
        <ele>1635</ele>
        <time>2012-03-23T15:54:52Z</time>
      </trkpt>
      <trkpt lat="45.32341" lon="6.22739">
        <ele>1632</ele>
        <time>2012-03-23T15:54:52Z</time>
      </trkpt>
      <trkpt lat="45.32346" lon="6.22765">
        <ele>1628</ele>
        <time>2012-03-23T15:54:52Z</time>
      </trkpt>
      <trkpt lat="45.32352" lon="6.22789">
        <ele>1623</ele>
        <time>2012-03-23T15:54:52Z</time>
      </trkpt>
      <trkpt lat="45.32357" lon="6.22813">
        <ele>1619</ele>
        <time>2012-03-23T15:54:52Z</time>
      </trkpt>
      <trkpt lat="45.3236" lon="6.22826">
        <ele>1617</ele>
        <time>2012-03-23T15:54:52Z</time>
      </trkpt>
      <trkpt lat="45.32366" lon="6.22853">
        <ele>1610</ele>
        <time>2012-03-23T15:54:52Z</time>
      </trkpt>
      <trkpt lat="45.32372" lon="6.22868">
        <ele>1607</ele>
        <time>2012-03-23T15:54:52Z</time>
      </trkpt>
      <trkpt lat="45.32376" lon="6.22881">
        <ele>1607</ele>
        <time>2012-03-23T15:54:52Z</time>
      </trkpt>
      <trkpt lat="45.32387" lon="6.22917">
        <ele>1598</ele>
        <time>2012-03-23T15:54:52Z</time>
      </trkpt>
      <trkpt lat="45.32392" lon="6.2293">
        <ele>1594</ele>
        <time>2012-03-23T15:54:52Z</time>
      </trkpt>
      <trkpt lat="45.32396" lon="6.22953">
        <ele>1590</ele>
        <time>2012-03-23T15:54:52Z</time>
      </trkpt>
      <trkpt lat="45.32401" lon="6.22967">
        <ele>1585</ele>
        <time>2012-03-23T15:54:52Z</time>
      </trkpt>
      <trkpt lat="45.32408" lon="6.22989">
        <ele>1581</ele>
        <time>2012-03-23T15:54:52Z</time>
      </trkpt>
      <trkpt lat="45.3242" lon="6.23007">
        <ele>1573</ele>
        <time>2012-03-23T15:54:52Z</time>
      </trkpt>
      <trkpt lat="45.32429" lon="6.23037">
        <ele>1569</ele>
        <time>2012-03-23T15:54:52Z</time>
      </trkpt>
      <trkpt lat="45.32442" lon="6.2306">
        <ele>1561</ele>
        <time>2012-03-23T15:54:52Z</time>
      </trkpt>
      <trkpt lat="45.32449" lon="6.23072">
        <ele>1557</ele>
        <time>2012-03-23T15:54:52Z</time>
      </trkpt>
      <trkpt lat="45.32453" lon="6.23087">
        <ele>1553</ele>
        <time>2012-03-23T15:54:52Z</time>
      </trkpt>
      <trkpt lat="45.32456" lon="6.23103">
        <ele>1550</ele>
        <time>2012-03-23T15:54:52Z</time>
      </trkpt>
      <trkpt lat="45.3246" lon="6.23121">
        <ele>1547</ele>
        <time>2012-03-23T15:54:52Z</time>
      </trkpt>
      <trkpt lat="45.32463" lon="6.23133">
        <ele>1541</ele>
        <time>2012-03-23T15:54:52Z</time>
      </trkpt>
      <trkpt lat="45.32462" lon="6.23159">
        <ele>1538</ele>
        <time>2012-03-23T15:54:52Z</time>
      </trkpt>
      <trkpt lat="45.32457" lon="6.23171">
        <ele>1538</ele>
        <time>2012-03-23T15:54:52Z</time>
      </trkpt>
      <trkpt lat="45.32458" lon="6.2319">
        <ele>1534</ele>
        <time>2012-03-23T15:54:52Z</time>
      </trkpt>
      <trkpt lat="45.32462" lon="6.23205">
        <ele>1528</ele>
        <time>2012-03-23T15:54:52Z</time>
      </trkpt>
      <trkpt lat="45.32486" lon="6.2321">
        <ele>1522</ele>
        <time>2012-03-23T15:54:52Z</time>
      </trkpt>
      <trkpt lat="45.32487" lon="6.23227">
        <ele>1516</ele>
        <time>2012-03-23T15:54:52Z</time>
      </trkpt>
      <trkpt lat="45.32483" lon="6.23262">
        <ele>1516</ele>
        <time>2012-03-23T15:54:52Z</time>
      </trkpt>
      <trkpt lat="45.32476" lon="6.23275">
        <ele>1515</ele>
        <time>2012-03-23T15:54:52Z</time>
      </trkpt>
      <trkpt lat="45.32465" lon="6.23295">
        <ele>1513</ele>
        <time>2012-03-23T15:54:52Z</time>
      </trkpt>
      <trkpt lat="45.32456" lon="6.23307">
        <ele>1513</ele>
        <time>2012-03-23T15:54:52Z</time>
      </trkpt>
      <trkpt lat="45.3245" lon="6.23331">
        <ele>1498</ele>
        <time>2012-03-23T15:54:52Z</time>
      </trkpt>
      <trkpt lat="45.32453" lon="6.2334">
        <ele>1490</ele>
        <time>2012-03-23T15:54:52Z</time>
      </trkpt>
      <trkpt lat="45.32465" lon="6.23339">
        <ele>1488</ele>
        <time>2012-03-23T15:54:52Z</time>
      </trkpt>
      <trkpt lat="45.32476" lon="6.23339">
        <ele>1487</ele>
        <time>2012-03-23T15:54:52Z</time>
      </trkpt>
      <trkpt lat="45.32474" lon="6.23352">
        <ele>1482</ele>
        <time>2012-03-23T15:54:52Z</time>
      </trkpt>
      <trkpt lat="45.32467" lon="6.2336">
        <ele>1481</ele>
        <time>2012-03-23T15:54:52Z</time>
      </trkpt>
      <trkpt lat="45.32466" lon="6.23366">
        <ele>1473</ele>
        <time>2012-03-23T15:54:52Z</time>
      </trkpt>
      <trkpt lat="45.32467" lon="6.23374">
        <ele>1472</ele>
        <time>2012-03-23T15:54:52Z</time>
      </trkpt>
      <trkpt lat="45.32477" lon="6.23372">
        <ele>1466</ele>
        <time>2012-03-23T15:54:52Z</time>
      </trkpt>
      <trkpt lat="45.32491" lon="6.23372">
        <ele>1461</ele>
        <time>2012-03-23T15:54:52Z</time>
      </trkpt>
      <trkpt lat="45.32477" lon="6.23398">
        <ele>1456</ele>
        <time>2012-03-23T15:54:52Z</time>
      </trkpt>
      <trkpt lat="45.3247" lon="6.23423">
        <ele>1449</ele>
        <time>2012-03-23T15:54:52Z</time>
      </trkpt>
      <trkpt lat="45.32471" lon="6.23441">
        <ele>1441</ele>
        <time>2012-03-23T15:54:52Z</time>
      </trkpt>
      <trkpt lat="45.32467" lon="6.23463">
        <ele>1436</ele>
        <time>2012-03-23T15:54:52Z</time>
      </trkpt>
      <trkpt lat="45.3246" lon="6.23483">
        <ele>1435</ele>
        <time>2012-03-23T15:54:52Z</time>
      </trkpt>
      <trkpt lat="45.32457" lon="6.23506">
        <ele>1431</ele>
        <time>2012-03-23T15:54:52Z</time>
      </trkpt>
      <trkpt lat="45.32452" lon="6.23518">
        <ele>1426</ele>
        <time>2012-03-23T15:54:52Z</time>
      </trkpt>
      <trkpt lat="45.32435" lon="6.23547">
        <ele>1423</ele>
        <time>2012-03-23T15:54:52Z</time>
      </trkpt>
      <trkpt lat="45.32407" lon="6.23575">
        <ele>1413</ele>
        <time>2012-03-23T15:54:52Z</time>
      </trkpt>
      <trkpt lat="45.32402" lon="6.23584">
        <ele>1413</ele>
        <time>2012-03-23T15:54:52Z</time>
      </trkpt>
      <trkpt lat="45.32406" lon="6.23594">
        <ele>1408</ele>
        <time>2012-03-23T15:54:52Z</time>
      </trkpt>
      <trkpt lat="45.32405" lon="6.23599">
        <ele>1405</ele>
        <time>2012-03-23T15:54:52Z</time>
      </trkpt>
      <trkpt lat="45.32396" lon="6.23609">
        <ele>1403</ele>
        <time>2012-03-23T15:54:52Z</time>
      </trkpt>
      <trkpt lat="45.32387" lon="6.23614">
        <ele>1401</ele>
        <time>2012-03-23T15:54:52Z</time>
      </trkpt>
      <trkpt lat="45.32378" lon="6.23626">
        <ele>1397</ele>
        <time>2012-03-23T15:54:52Z</time>
      </trkpt>
      <trkpt lat="45.3237" lon="6.23653">
        <ele>1389</ele>
        <time>2012-03-23T15:54:52Z</time>
      </trkpt>
      <trkpt lat="45.32365" lon="6.23663">
        <ele>1386</ele>
        <time>2012-03-23T15:54:52Z</time>
      </trkpt>
      <trkpt lat="45.32356" lon="6.23674">
        <ele>1383</ele>
        <time>2012-03-23T15:54:52Z</time>
      </trkpt>
      <trkpt lat="45.32344" lon="6.23685">
        <ele>1381</ele>
        <time>2012-03-23T15:54:52Z</time>
      </trkpt>
      <trkpt lat="45.32337" lon="6.23695">
        <ele>1379</ele>
        <time>2012-03-23T15:54:52Z</time>
      </trkpt>
      <trkpt lat="45.32338" lon="6.23708">
        <ele>1370</ele>
        <time>2012-03-23T15:54:52Z</time>
      </trkpt>
      <trkpt lat="45.32352" lon="6.23716">
        <ele>1369</ele>
        <time>2012-03-23T15:54:52Z</time>
      </trkpt>
      <trkpt lat="45.32369" lon="6.23729">
        <ele>1369</ele>
        <time>2012-03-23T15:54:52Z</time>
      </trkpt>
      <trkpt lat="45.32367" lon="6.23741">
        <ele>1370</ele>
        <time>2012-03-23T15:54:52Z</time>
      </trkpt>
      <trkpt lat="45.32364" lon="6.23756">
        <ele>1368</ele>
        <time>2012-03-23T15:54:52Z</time>
      </trkpt>
      <trkpt lat="45.32357" lon="6.23774">
        <ele>1363</ele>
        <time>2012-03-23T15:54:52Z</time>
      </trkpt>
      <trkpt lat="45.32347" lon="6.23795">
        <ele>1358</ele>
        <time>2012-03-23T15:54:52Z</time>
      </trkpt>
      <trkpt lat="45.32335" lon="6.23806">
        <ele>1355</ele>
        <time>2012-03-23T15:54:52Z</time>
      </trkpt>
      <trkpt lat="45.32327" lon="6.23819">
        <ele>1352</ele>
        <time>2012-03-23T15:54:52Z</time>
      </trkpt>
      <trkpt lat="45.32314" lon="6.23837">
        <ele>1347</ele>
        <time>2012-03-23T15:54:52Z</time>
      </trkpt>
      <trkpt lat="45.32302" lon="6.23849">
        <ele>1345</ele>
        <time>2012-03-23T15:54:52Z</time>
      </trkpt>
      <trkpt lat="45.32291" lon="6.23856">
        <ele>1343</ele>
        <time>2012-03-23T15:54:52Z</time>
      </trkpt>
      <trkpt lat="45.32278" lon="6.23866">
        <ele>1340</ele>
        <time>2012-03-23T15:54:52Z</time>
      </trkpt>
      <trkpt lat="45.32267" lon="6.23871">
        <ele>1336</ele>
        <time>2012-03-23T15:54:52Z</time>
      </trkpt>
      <trkpt lat="45.32256" lon="6.23882">
        <ele>1333</ele>
        <time>2012-03-23T15:54:52Z</time>
      </trkpt>
      <trkpt lat="45.32244" lon="6.23886">
        <ele>1331</ele>
        <time>2012-03-23T15:54:52Z</time>
      </trkpt>
      <trkpt lat="45.32237" lon="6.23892">
        <ele>1328</ele>
        <time>2012-03-23T15:54:52Z</time>
      </trkpt>
      <trkpt lat="45.3223" lon="6.239">
        <ele>1324</ele>
        <time>2012-03-23T15:54:52Z</time>
      </trkpt>
      <trkpt lat="45.32216" lon="6.23916">
        <ele>1318</ele>
        <time>2012-03-23T15:54:52Z</time>
      </trkpt>
      <trkpt lat="45.32207" lon="6.23928">
        <ele>1315</ele>
        <time>2012-03-23T15:54:52Z</time>
      </trkpt>
      <trkpt lat="45.322" lon="6.23937">
        <ele>1312</ele>
        <time>2012-03-23T15:54:52Z</time>
      </trkpt>
      <trkpt lat="45.32192" lon="6.23947">
        <ele>1307</ele>
        <time>2012-03-23T15:54:52Z</time>
      </trkpt>
      <trkpt lat="45.32185" lon="6.23956">
        <ele>1304</ele>
        <time>2012-03-23T15:54:52Z</time>
      </trkpt>
      <trkpt lat="45.32178" lon="6.23966">
        <ele>1300</ele>
        <time>2012-03-23T15:54:52Z</time>
      </trkpt>
      <trkpt lat="45.32171" lon="6.23974">
        <ele>1296</ele>
        <time>2012-03-23T15:54:52Z</time>
      </trkpt>
      <trkpt lat="45.32157" lon="6.23984">
        <ele>1290</ele>
        <time>2012-03-23T15:54:52Z</time>
      </trkpt>
      <trkpt lat="45.32148" lon="6.23991">
        <ele>1287</ele>
        <time>2012-03-23T15:54:52Z</time>
      </trkpt>
      <trkpt lat="45.32136" lon="6.24003">
        <ele>1284</ele>
        <time>2012-03-23T15:54:52Z</time>
      </trkpt>
      <trkpt lat="45.32129" lon="6.24016">
        <ele>1281</ele>
        <time>2012-03-23T15:54:52Z</time>
      </trkpt>
      <trkpt lat="45.32124" lon="6.24026">
        <ele>1279</ele>
        <time>2012-03-23T15:54:52Z</time>
      </trkpt>
      <trkpt lat="45.32119" lon="6.24033">
        <ele>1276</ele>
        <time>2012-03-23T15:54:52Z</time>
      </trkpt>
      <trkpt lat="45.32111" lon="6.24045">
        <ele>1273</ele>
        <time>2012-03-23T15:54:52Z</time>
      </trkpt>
      <trkpt lat="45.32106" lon="6.24057">
        <ele>1271</ele>
        <time>2012-03-23T15:54:52Z</time>
      </trkpt>
      <trkpt lat="45.32098" lon="6.24072">
        <ele>1268</ele>
        <time>2012-03-23T15:54:52Z</time>
      </trkpt>
      <trkpt lat="45.32086" lon="6.24089">
        <ele>1265</ele>
        <time>2012-03-23T15:54:52Z</time>
      </trkpt>
      <trkpt lat="45.32074" lon="6.24109">
        <ele>1262</ele>
        <time>2012-03-23T15:54:52Z</time>
      </trkpt>
      <trkpt lat="45.32068" lon="6.24121">
        <ele>1259</ele>
        <time>2012-03-23T15:54:52Z</time>
      </trkpt>
      <trkpt lat="45.32052" lon="6.24138">
        <ele>1254</ele>
        <time>2012-03-23T15:54:52Z</time>
      </trkpt>
      <trkpt lat="45.32047" lon="6.2415">
        <ele>1251</ele>
        <time>2012-03-23T15:54:52Z</time>
      </trkpt>
      <trkpt lat="45.32039" lon="6.24165">
        <ele>1247</ele>
        <time>2012-03-23T15:54:52Z</time>
      </trkpt>
      <trkpt lat="45.32034" lon="6.24176">
        <ele>1244</ele>
        <time>2012-03-23T15:54:52Z</time>
      </trkpt>
      <trkpt lat="45.3203" lon="6.24186">
        <ele>1241</ele>
        <time>2012-03-23T15:54:52Z</time>
      </trkpt>
      <trkpt lat="45.32022" lon="6.24198">
        <ele>1237</ele>
        <time>2012-03-23T15:54:52Z</time>
      </trkpt>
      <trkpt lat="45.32015" lon="6.24214">
        <ele>1234</ele>
        <time>2012-03-23T15:54:52Z</time>
      </trkpt>
      <trkpt lat="45.32006" lon="6.2423">
        <ele>1231</ele>
        <time>2012-03-23T15:54:52Z</time>
      </trkpt>
      <trkpt lat="45.31994" lon="6.24245">
        <ele>1228</ele>
        <time>2012-03-23T15:54:52Z</time>
      </trkpt>
      <trkpt lat="45.31978" lon="6.2426">
        <ele>1227</ele>
        <time>2012-03-23T15:54:52Z</time>
      </trkpt>
      <trkpt lat="45.31962" lon="6.24272">
        <ele>1225</ele>
        <time>2012-03-23T15:54:52Z</time>
      </trkpt>
      <trkpt lat="45.3195" lon="6.24288">
        <ele>1221</ele>
        <time>2012-03-23T15:54:52Z</time>
      </trkpt>
      <trkpt lat="45.31944" lon="6.24308">
        <ele>1216</ele>
        <time>2012-03-23T15:54:52Z</time>
      </trkpt>
      <trkpt lat="45.31935" lon="6.24324">
        <ele>1214</ele>
        <time>2012-03-23T15:54:52Z</time>
      </trkpt>
      <trkpt lat="45.31933" lon="6.24333">
        <ele>1212</ele>
        <time>2012-03-23T15:54:52Z</time>
      </trkpt>
      <trkpt lat="45.31929" lon="6.24349">
        <ele>1209</ele>
        <time>2012-03-23T15:54:52Z</time>
      </trkpt>
      <trkpt lat="45.31926" lon="6.2436">
        <ele>1209</ele>
        <time>2012-03-23T15:54:52Z</time>
      </trkpt>
      <trkpt lat="45.31921" lon="6.24369">
        <ele>1207</ele>
        <time>2012-03-23T15:54:52Z</time>
      </trkpt>
      <trkpt lat="45.31909" lon="6.24394">
        <ele>1201</ele>
        <time>2012-03-23T15:54:52Z</time>
      </trkpt>
      <trkpt lat="45.319" lon="6.24407">
        <ele>1198</ele>
        <time>2012-03-23T15:54:52Z</time>
      </trkpt>
      <trkpt lat="45.3189" lon="6.24416">
        <ele>1195</ele>
        <time>2012-03-23T15:54:52Z</time>
      </trkpt>
      <trkpt lat="45.31881" lon="6.2443">
        <ele>1191</ele>
        <time>2012-03-23T15:54:52Z</time>
      </trkpt>
      <trkpt lat="45.31873" lon="6.24439">
        <ele>1189</ele>
        <time>2012-03-23T15:54:52Z</time>
      </trkpt>
      <trkpt lat="45.31867" lon="6.2445">
        <ele>1185</ele>
        <time>2012-03-23T15:54:52Z</time>
      </trkpt>
      <trkpt lat="45.3186" lon="6.2446">
        <ele>1182</ele>
        <time>2012-03-23T15:54:52Z</time>
      </trkpt>
      <trkpt lat="45.31851" lon="6.2447">
        <ele>1179</ele>
        <time>2012-03-23T15:54:52Z</time>
      </trkpt>
      <trkpt lat="45.31847" lon="6.24478">
        <ele>1176</ele>
        <time>2012-03-23T15:54:52Z</time>
      </trkpt>
      <trkpt lat="45.31839" lon="6.24493">
        <ele>1172</ele>
        <time>2012-03-23T15:54:52Z</time>
      </trkpt>
      <trkpt lat="45.31831" lon="6.24507">
        <ele>1170</ele>
        <time>2012-03-23T15:54:52Z</time>
      </trkpt>
      <trkpt lat="45.31828" lon="6.24514">
        <ele>1169</ele>
        <time>2012-03-23T15:54:52Z</time>
      </trkpt>
      <trkpt lat="45.31821" lon="6.2453">
        <ele>1165</ele>
        <time>2012-03-23T15:54:52Z</time>
      </trkpt>
      <trkpt lat="45.31806" lon="6.24566">
        <ele>1159</ele>
        <time>2012-03-23T15:54:52Z</time>
      </trkpt>
      <trkpt lat="45.31801" lon="6.24581">
        <ele>1156</ele>
        <time>2012-03-23T15:54:52Z</time>
      </trkpt>
      <trkpt lat="45.31797" lon="6.246">
        <ele>1152</ele>
        <time>2012-03-23T15:54:52Z</time>
      </trkpt>
      <trkpt lat="45.31794" lon="6.24618">
        <ele>1149</ele>
        <time>2012-03-23T15:54:52Z</time>
      </trkpt>
      <trkpt lat="45.31791" lon="6.2463">
        <ele>1146</ele>
        <time>2012-03-23T15:54:52Z</time>
      </trkpt>
      <trkpt lat="45.31781" lon="6.24644">
        <ele>1143</ele>
        <time>2012-03-23T15:54:52Z</time>
      </trkpt>
      <trkpt lat="45.31776" lon="6.24651">
        <ele>1143</ele>
        <time>2012-03-23T15:54:52Z</time>
      </trkpt>
      <trkpt lat="45.31765" lon="6.24664">
        <ele>1138</ele>
        <time>2012-03-23T15:54:52Z</time>
      </trkpt>
      <trkpt lat="45.31753" lon="6.24679">
        <ele>1135</ele>
        <time>2012-03-23T15:54:52Z</time>
      </trkpt>
      <trkpt lat="45.31747" lon="6.24686">
        <ele>1133</ele>
        <time>2012-03-23T15:54:52Z</time>
      </trkpt>
      <trkpt lat="45.31738" lon="6.24706">
        <ele>1130</ele>
        <time>2012-03-23T15:54:52Z</time>
      </trkpt>
      <trkpt lat="45.31734" lon="6.2472">
        <ele>1127</ele>
        <time>2012-03-23T15:54:52Z</time>
      </trkpt>
      <trkpt lat="45.31729" lon="6.24737">
        <ele>1124</ele>
        <time>2012-03-23T15:54:52Z</time>
      </trkpt>
      <trkpt lat="45.31722" lon="6.24757">
        <ele>1121</ele>
        <time>2012-03-23T15:54:52Z</time>
      </trkpt>
      <trkpt lat="45.31718" lon="6.24773">
        <ele>1118</ele>
        <time>2012-03-23T15:54:52Z</time>
      </trkpt>
      <trkpt lat="45.31714" lon="6.24789">
        <ele>1115</ele>
        <time>2012-03-23T15:54:52Z</time>
      </trkpt>
      <trkpt lat="45.31708" lon="6.24804">
        <ele>1111</ele>
        <time>2012-03-23T15:54:52Z</time>
      </trkpt>
      <trkpt lat="45.31705" lon="6.24817">
        <ele>1109</ele>
        <time>2012-03-23T15:54:52Z</time>
      </trkpt>
      <trkpt lat="45.31704" lon="6.2483">
        <ele>1106</ele>
        <time>2012-03-23T15:54:52Z</time>
      </trkpt>
      <trkpt lat="45.31702" lon="6.24841">
        <ele>1103</ele>
        <time>2012-03-23T15:54:52Z</time>
      </trkpt>
      <trkpt lat="45.31697" lon="6.24859">
        <ele>1101</ele>
        <time>2012-03-23T15:54:52Z</time>
      </trkpt>
      <trkpt lat="45.31693" lon="6.24878">
        <ele>1098</ele>
        <time>2012-03-23T15:54:52Z</time>
      </trkpt>
      <trkpt lat="45.31688" lon="6.24901">
        <ele>1095</ele>
        <time>2012-03-23T15:54:52Z</time>
      </trkpt>
      <trkpt lat="45.31684" lon="6.24919">
        <ele>1092</ele>
        <time>2012-03-23T15:54:52Z</time>
      </trkpt>
      <trkpt lat="45.31674" lon="6.24951">
        <ele>1088</ele>
        <time>2012-03-23T15:54:52Z</time>
      </trkpt>
      <trkpt lat="45.31668" lon="6.24977">
        <ele>1085</ele>
        <time>2012-03-23T15:54:52Z</time>
      </trkpt>
      <trkpt lat="45.31663" lon="6.24995">
        <ele>1082</ele>
        <time>2012-03-23T15:54:52Z</time>
      </trkpt>
      <trkpt lat="45.31659" lon="6.2501">
        <ele>1079</ele>
        <time>2012-03-23T15:54:52Z</time>
      </trkpt>
      <trkpt lat="45.31656" lon="6.25019">
        <ele>1076</ele>
        <time>2012-03-23T15:54:52Z</time>
      </trkpt>
      <trkpt lat="45.31648" lon="6.25046">
        <ele>1073</ele>
        <time>2012-03-23T15:54:52Z</time>
      </trkpt>
      <trkpt lat="45.3164" lon="6.25075">
        <ele>1070</ele>
        <time>2012-03-23T15:54:52Z</time>
      </trkpt>
      <trkpt lat="45.31638" lon="6.25082">
        <ele>1068</ele>
        <time>2012-03-23T15:54:52Z</time>
      </trkpt>
      <trkpt lat="45.31636" lon="6.25087">
        <ele>1067</ele>
        <time>2012-03-23T15:54:52Z</time>
      </trkpt>
      <trkpt lat="45.31634" lon="6.25096">
        <ele>1065</ele>
        <time>2012-03-23T15:54:52Z</time>
      </trkpt>
      <trkpt lat="45.31633" lon="6.251">
        <ele>1064</ele>
        <time>2012-03-23T15:54:52Z</time>
      </trkpt>
      <trkpt lat="45.31627" lon="6.25086">
        <ele>1066</ele>
        <time>2012-03-23T15:54:52Z</time>
      </trkpt>
      <trkpt lat="45.31621" lon="6.25064">
        <ele>1067</ele>
        <time>2012-03-23T15:54:52Z</time>
      </trkpt>
      <trkpt lat="45.3162" lon="6.25062">
        <ele>1067</ele>
        <time>2012-03-23T15:54:52Z</time>
      </trkpt>
      <trkpt lat="45.31612" lon="6.25058">
        <ele>1070</ele>
        <time>2012-03-23T15:54:52Z</time>
      </trkpt>
      <trkpt lat="45.31609" lon="6.25056">
        <ele>1067</ele>
        <time>2012-03-23T15:54:52Z</time>
      </trkpt>
      <trkpt lat="45.31605" lon="6.25049">
        <ele>1068</ele>
        <time>2012-03-23T15:54:52Z</time>
      </trkpt>
    </trkseg>
  </trk>
</gpx>